GFSCGP_850_thetae_000.txt.gz
Theta_e
320 322 323 323 322 323 323 324 324 324 325 323 322 322 322 323 321 320 320 320 320 319 318 315 312 310 308 309 310 309 309 309 308 308 308 306 304 303 302 302 302 300 300 299
323 322 323 324 324 323 324 323 322 323 323 323 323 323 322 322 322 320 319 319 320 319 318 316 313 310 309 307 307 306 307 308 307 308 307 304 303 301 301 302 302 301 301 300
324 324 322 323 324 323 323 322 322 322 323 322 322 322 321 320 321 322 321 320 320 320 319 317 314 311 309 306 306 307 305 305 306 306 305 303 302 301 301 301 300 301 300 301
324 323 321 321 321 322 322 323 322 322 321 322 321 323 321 321 321 320 322 321 320 320 319 317 315 311 308 307 306 305 306 305 304 304 303 302 301 301 300 300 300 300 300 300
323 321 320 321 321 321 322 321 321 322 322 321 322 322 322 323 323 322 321 322 321 320 319 318 316 312 309 306 306 305 306 304 304 303 302 302 301 301 301 300 299 299 300 300
321 319 320 320 321 321 321 321 321 322 322 323 321 322 322 323 323 323 322 322 321 320 319 318 316 313 310 307 306 305 305 304 303 303 302 301 301 301 301 300 300 300 300 299
321 321 319 320 320 319 320 321 324 327 327 325 323 322 322 324 323 322 321 323 321 320 318 317 315 313 311 307 306 305 305 304 303 303 301 301 300 300 300 300 300 299 299 299
322 322 320 319 320 321 320 320 322 324 325 326 321 322 322 322 320 320 321 321 320 319 318 316 314 312 311 308 306 305 305 304 304 302 301 300 299 299 300 299 299 299 299 299
322 322 323 320 319 320 322 321 321 322 321 322 322 322 322 320 317 318 319 318 319 318 317 315 313 312 311 309 307 306 305 305 303 303 301 300 299 299 299 299 299 299 299 299
322 322 323 320 319 320 320 321 322 321 321 320 321 320 322 322 318 315 315 316 318 318 316 314 312 311 311 310 308 307 306 305 304 303 301 300 299 299 299 299 299 299 299 299
321 322 323 318 319 320 319 320 321 322 319 320 320 321 321 319 319 317 314 316 317 318 316 315 312 311 310 310 308 307 306 304 303 302 301 299 299 299 299 299 299 299 299 299
322 323 323 321 321 319 319 320 321 320 320 321 321 322 321 321 317 317 317 316 316 316 316 314 312 311 310 309 308 306 305 303 302 301 300 299 299 298 298 298 299 299 299 299
322 323 323 323 321 320 320 320 319 320 319 321 321 322 318 317 317 317 317 316 316 315 315 314 312 311 310 308 307 305 304 303 302 301 300 299 299 298 298 298 299 299 299 299
322 322 322 323 323 322 320 320 320 320 321 320 321 321 320 317 316 315 316 316 316 315 314 313 312 311 309 308 306 305 303 302 302 300 299 299 299 298 298 298 298 298 298 299
322 322 321 322 322 323 324 322 320 320 321 321 321 321 322 321 319 315 316 316 316 314 313 313 312 311 309 308 306 304 303 302 300 299 299 299 299 298 298 298 298 298 299 298
317 323 322 321 321 322 322 323 323 320 320 320 321 321 321 321 322 321 318 317 316 315 314 313 312 311 309 308 306 304 303 302 300 299 299 299 299 298 298 298 298 298 298 298
311 315 320 325 322 322 323 323 323 323 321 320 321 320 320 320 320 320 321 320 318 317 315 314 312 311 310 308 306 304 302 301 300 299 299 298 298 298 298 298 298 298 298 298
312 314 314 319 324 327 323 322 323 323 323 321 321 321 320 320 322 322 320 319 316 315 314 314 312 311 309 307 306 303 302 301 299 299 299 298 298 298 298 298 298 298 298 298
314 316 318 321 323 325 324 323 323 322 322 322 321 320 320 321 321 320 319 317 316 315 313 312 311 310 308 306 305 302 301 300 299 299 298 298 298 298 298 298 298 298 298 298
316 318 319 319 324 328 324 322 321 319 321 320 320 321 320 320 320 320 320 318 314 312 311 310 310 308 307 305 302 301 300 299 299 299 298 298 298 298 298 298 298 298 297 297
313 314 315 314 314 320 321 321 321 321 321 319 319 319 319 319 320 320 318 316 314 310 310 309 308 307 304 303 301 300 299 299 299 299 298 298 298 298 298 298 298 297 297 297
313 313 313 315 315 318 315 316 318 315 313 313 315 317 317 319 317 315 314 312 310 309 308 307 305 303 302 301 300 300 299 299 299 298 298 298 298 298 298 298 298 297 297 297
309 314 314 314 316 312 311 315 312 311 313 312 311 313 317 315 313 311 310 309 309 308 306 304 303 302 301 300 300 299 299 299 298 298 298 298 298 298 298 297 298 297 297 297
307 308 311 310 311 311 312 311 310 311 312 314 310 310 313 313 311 309 308 307 307 306 305 303 302 301 301 300 300 299 299 299 298 298 298 298 298 298 298 298 297 297 297 297
306 307 308 308 308 310 310 310 311 312 313 313 312 313 311 311 310 308 307 307 306 305 303 302 301 301 301 300 299 299 299 298 298 298 298 298 298 297 297 297 297 297 297 297
305 307 309 311 310 310 309 309 310 314 314 314 314 313 313 313 310 309 307 306 305 304 303 301 301 301 300 300 299 299 298 298 298 298 298 298 298 297 297 297 297 297 297 297

GFSCGP_850_thetae_003.txt.gz
Theta_e
319 316 317 316 316 317 319 320 320 318 321 319 319 319 318 320 319 318 319 318 318 318 318 317 316 314 314 313 312 311 311 311 311 312 312 311 309 306 304 302 301 300 299 298
318 318 317 319 319 319 319 318 319 318 321 319 318 319 318 317 319 319 318 318 318 318 318 317 316 314 313 313 312 310 309 309 310 310 310 309 307 305 303 301 300 299 299 299
317 320 320 320 320 320 319 319 320 319 321 319 319 318 318 318 319 320 319 320 319 319 319 318 316 315 314 313 312 310 308 308 308 308 309 308 306 304 302 300 299 299 300 299
318 320 320 319 319 320 319 320 321 320 319 317 317 319 317 318 317 316 319 318 319 318 319 318 317 315 315 315 312 309 307 307 307 307 308 307 305 303 301 300 299 299 299 299
319 319 319 319 319 318 318 320 320 320 319 319 319 318 317 316 317 317 315 319 318 319 319 319 318 317 316 315 313 308 305 306 306 306 307 306 304 303 301 299 299 299 299 299
317 319 318 318 319 319 319 319 319 319 317 319 317 318 318 316 318 317 317 318 320 319 320 319 319 317 316 314 312 308 306 306 305 305 305 304 303 302 300 299 299 299 299 299
318 319 318 319 318 318 319 317 317 321 321 319 317 318 318 316 317 317 318 321 320 320 320 319 318 317 315 314 312 309 306 305 305 304 304 303 302 301 300 299 299 299 299 298
316 316 318 316 318 317 317 316 316 319 323 320 320 319 320 317 320 321 322 322 322 320 321 319 318 318 316 315 313 310 306 305 305 305 304 303 302 300 299 299 299 299 299 298
318 318 318 317 317 318 317 318 317 317 317 317 317 317 317 318 317 316 318 320 321 321 320 319 318 317 316 315 313 310 307 306 305 305 304 303 302 300 299 299 299 299 299 299
316 318 318 318 318 317 317 316 318 317 320 318 317 316 317 317 318 314 313 317 320 320 319 318 318 317 316 314 312 310 308 307 306 306 304 303 301 300 299 299 298 299 299 298
317 316 319 318 317 318 317 319 318 317 315 315 316 314 313 317 316 313 315 316 319 319 318 317 317 316 314 312 311 310 308 307 306 305 304 303 301 300 299 298 298 298 298 298
319 318 319 319 317 317 317 318 319 320 317 317 319 319 316 313 314 313 313 317 318 318 318 317 316 315 313 311 311 310 309 308 306 305 303 302 301 300 299 298 298 298 298 298
322 322 321 321 318 317 317 317 317 318 314 318 320 320 316 317 316 315 315 315 316 316 317 317 316 314 312 311 310 310 308 307 306 304 303 302 300 300 299 298 298 298 298 298
319 323 323 322 320 319 318 318 318 317 319 320 319 319 317 315 314 312 314 316 316 315 315 316 316 314 312 311 310 309 308 306 305 304 302 301 300 299 299 298 298 298 297 297
314 321 321 317 316 319 320 320 319 318 318 319 319 318 318 317 314 312 315 316 315 315 315 315 315 314 313 311 310 309 308 306 304 303 302 301 300 299 298 298 298 297 298 298
312 313 311 311 313 315 316 318 319 319 319 319 319 319 316 317 318 317 315 315 314 314 315 315 314 313 312 311 310 309 307 306 304 302 301 300 299 299 298 298 297 298 298 298
311 312 311 311 312 312 313 317 321 322 319 319 319 319 317 318 318 319 319 317 314 315 315 315 315 314 313 311 310 308 307 305 303 302 300 300 299 298 298 298 298 298 298 297
311 310 312 312 312 315 313 320 321 323 323 320 319 319 317 318 319 319 320 320 318 318 316 315 315 314 313 312 310 308 306 304 303 301 300 299 299 298 298 298 298 298 297 297
307 310 314 315 316 315 315 318 317 319 319 318 319 320 316 318 318 319 320 321 321 320 317 317 316 314 313 311 309 307 305 304 302 301 300 299 298 298 298 298 298 297 297 297
309 309 312 313 316 315 313 315 315 314 323 314 313 313 311 315 318 319 320 320 320 319 317 315 314 313 312 310 309 307 304 302 301 300 299 299 298 298 298 298 297 297 297 297
306 307 310 311 313 313 312 312 313 318 317 311 310 311 311 311 315 320 320 320 318 316 314 313 312 311 310 309 307 306 304 302 301 300 298 298 298 298 298 298 297 297 297 297
307 307 308 308 311 311 313 315 317 314 309 309 308 308 309 312 311 314 319 317 314 313 312 311 310 309 308 307 306 305 303 301 300 299 298 298 298 298 298 297 297 297 297 297
305 306 305 307 307 307 306 307 312 311 309 309 309 309 311 312 311 309 312 312 312 311 310 309 309 308 307 306 304 302 301 299 299 299 298 298 298 298 298 297 297 297 297 297
304 304 306 306 306 306 307 306 307 308 308 309 311 312 314 312 312 309 308 309 309 309 308 307 307 305 303 302 301 300 299 299 299 298 298 298 298 298 298 297 297 297 297 297
304 304 304 303 304 304 306 308 309 308 309 309 310 313 315 313 314 311 308 308 307 307 306 305 304 303 301 301 300 300 299 299 299 298 298 298 298 298 298 297 297 297 297 297
303 303 303 303 303 303 305 305 305 306 306 308 309 310 312 312 313 314 309 307 306 305 304 303 302 302 301 300 300 299 299 299 298 298 298 298 298 298 297 297 297 297 297 298

GFSCGP_850_thetae_006.txt.gz
Theta_e
318 315 316 315 315 315 314 316 317 317 317 318 318 318 317 317 318 318 319 318 320 320 319 317 317 316 315 314 314 313 313 312 311 311 312 312 312 311 309 307 304 302 300 299
316 316 315 315 316 316 316 316 315 316 318 317 317 318 318 315 317 318 319 318 319 319 318 317 317 316 315 314 314 313 313 311 311 310 311 311 311 310 308 306 303 301 300 299
315 317 318 317 318 319 318 317 316 317 318 317 318 318 317 316 317 319 319 319 319 320 320 319 318 317 316 315 314 314 313 312 311 310 309 310 310 309 307 304 302 300 299 299
316 318 318 318 318 318 318 317 318 319 318 317 317 319 315 315 315 314 317 319 319 318 319 319 319 318 317 316 315 313 312 311 310 309 309 309 309 308 306 303 301 299 299 299
316 318 317 319 319 316 318 318 318 319 317 317 317 316 317 315 315 315 314 317 319 319 318 319 319 319 318 316 316 314 312 311 309 308 308 308 308 307 305 303 300 299 298 299
315 318 317 317 318 317 317 318 317 316 315 317 317 316 319 315 317 317 317 318 318 318 319 318 319 319 318 317 315 314 313 311 309 307 307 308 307 306 304 302 300 299 298 299
313 314 316 318 317 318 318 315 316 317 318 319 315 316 319 313 312 313 314 318 321 320 319 318 318 318 318 317 316 314 313 311 308 306 306 307 307 305 304 302 300 299 299 298
315 315 316 315 318 317 316 316 316 318 318 317 315 317 317 314 317 318 317 320 320 320 320 320 319 319 319 318 316 315 313 310 307 306 306 307 305 305 303 301 299 299 299 299
314 316 315 316 317 317 317 317 316 315 314 314 315 316 314 314 314 313 315 317 320 320 320 321 320 320 319 318 317 315 314 311 308 307 306 306 305 304 303 301 299 299 299 299
314 316 316 316 316 316 316 315 317 314 318 318 316 314 316 314 316 315 312 314 320 320 319 320 320 320 319 318 317 315 314 313 310 307 306 306 305 304 302 300 299 298 298 298
315 314 318 317 315 316 316 317 316 314 315 318 319 318 312 316 315 313 312 316 320 320 320 321 320 320 319 318 317 316 314 312 309 307 306 305 305 303 302 300 299 298 298 298
320 322 321 319 317 316 316 317 317 319 319 313 318 319 315 312 311 312 314 317 317 319 320 320 320 319 318 317 316 315 314 311 310 308 306 306 305 303 302 300 299 298 298 297
319 322 325 324 320 315 316 316 316 316 317 319 320 320 316 315 315 315 313 316 318 318 319 319 319 318 317 317 316 315 313 311 310 308 307 306 304 303 302 300 299 298 298 297
315 318 323 324 321 313 315 312 316 315 319 319 319 318 318 315 312 312 315 318 318 317 318 318 317 317 316 316 315 314 312 311 310 308 307 305 303 302 301 300 299 298 297 297
314 315 314 313 312 312 312 311 310 313 313 314 317 319 319 318 317 317 317 316 315 314 315 317 317 317 316 315 314 313 311 311 310 308 306 305 303 302 301 300 299 298 297 297
310 309 311 312 311 310 309 309 312 312 311 313 318 319 318 318 316 316 316 315 317 315 315 316 315 316 316 316 315 313 311 310 309 307 306 304 303 302 301 299 298 298 297 297
307 309 307 309 308 309 309 309 311 311 312 313 316 318 313 311 313 316 316 316 315 318 317 316 316 315 315 315 314 313 311 310 308 307 305 303 302 301 300 299 298 298 297 297
307 308 307 308 307 310 309 310 311 312 311 315 315 314 311 310 309 310 315 318 318 317 319 319 317 315 315 315 314 313 311 310 308 306 304 303 301 300 299 298 298 297 297 297
305 309 312 311 309 310 310 311 316 316 316 312 311 310 309 307 308 311 314 312 313 316 319 320 320 318 315 315 314 312 311 309 307 305 304 302 300 300 299 298 298 297 297 297
304 307 308 305 303 306 305 309 313 313 313 311 311 310 308 306 308 309 311 313 311 311 314 320 320 317 315 314 313 312 310 308 306 304 303 301 300 300 299 298 297 298 297 296
305 306 307 308 308 309 310 310 308 309 311 310 310 309 308 308 308 309 312 312 309 311 315 318 318 317 316 314 312 311 309 307 306 303 301 300 300 299 298 298 298 297 297 297
305 306 305 306 307 304 310 306 306 306 308 309 310 308 309 310 310 310 312 312 306 309 314 315 315 315 314 312 311 310 308 306 303 302 301 300 299 298 298 298 297 297 297 297
303 304 305 305 303 303 305 305 305 305 304 306 308 308 310 309 311 312 310 311 306 306 312 313 313 312 312 311 310 309 306 304 302 300 300 299 298 298 298 298 297 297 297 297
301 302 305 305 305 304 305 304 304 304 306 305 307 306 310 309 310 312 309 310 309 306 309 311 311 310 309 309 307 306 304 302 301 300 299 298 298 298 298 297 297 297 297 297
303 303 303 303 303 303 303 303 303 303 304 304 305 305 305 309 310 309 309 309 312 306 307 308 309 308 307 306 304 303 302 301 299 299 298 298 298 298 298 297 297 297 297 297
303 303 304 304 303 302 302 303 303 303 304 303 303 304 306 306 309 310 310 309 311 306 306 307 307 306 304 303 301 301 300 299 299 299 298 298 298 298 297 297 297 297 296 297

GFSCGP_850_thetae_009.txt.gz
Theta_e
316 314 314 314 314 313 313 313 313 314 314 317 316 317 317 317 317 318 319 319 319 320 320 321 319 318 317 317 316 316 315 314 313 312 311 310 311 311 311 311 309 307 303 301
315 314 313 314 314 315 315 315 314 313 314 316 315 317 316 316 314 317 318 318 319 320 320 319 320 319 317 317 316 316 315 314 313 312 311 310 310 310 310 310 309 305 302 300
314 315 316 315 315 316 316 316 314 314 315 315 316 318 315 315 316 317 318 319 318 319 320 320 320 320 319 317 316 316 315 314 313 312 310 309 309 309 309 310 308 304 302 300
314 315 315 315 316 315 315 316 316 317 317 318 315 318 315 315 315 314 316 317 319 319 319 319 320 320 319 317 317 316 315 314 314 312 310 310 310 310 310 309 306 304 301 299
315 316 316 317 316 316 317 316 317 317 316 315 316 316 317 313 314 313 313 316 318 319 319 318 319 320 320 318 317 316 315 314 313 313 311 310 309 308 308 308 305 303 300 299
313 315 316 316 317 316 316 317 316 315 313 317 317 316 318 316 315 315 315 317 319 319 318 318 318 318 318 318 317 316 315 314 313 312 311 309 308 308 308 308 305 303 300 299
311 313 314 315 314 316 316 315 316 317 317 320 314 315 318 314 313 312 314 317 319 318 317 318 317 317 318 318 317 316 315 314 313 312 310 309 307 307 307 307 304 302 300 299
313 316 313 314 314 315 315 316 318 319 317 317 314 316 317 313 315 317 317 318 318 317 317 320 318 318 319 318 317 316 316 315 313 312 311 308 307 306 307 306 304 302 299 299
313 313 313 314 315 315 315 315 316 315 317 313 316 314 313 313 312 313 314 318 319 321 320 319 320 319 319 318 318 317 317 315 314 313 311 308 306 306 306 306 303 301 299 298
314 316 315 315 315 315 315 314 316 312 318 319 317 313 315 313 314 313 312 314 319 320 320 319 319 319 319 319 318 318 317 316 316 314 312 309 306 306 306 305 303 301 299 298
318 316 320 316 317 318 317 315 314 314 315 319 319 318 314 315 315 315 311 314 316 318 318 319 318 318 318 317 318 318 317 316 315 313 311 308 306 306 305 305 302 300 299 298
318 320 322 321 318 318 317 316 314 319 320 315 317 319 315 312 311 311 311 317 320 321 318 318 317 318 318 317 317 318 317 316 315 314 311 308 306 305 305 304 302 300 299 298
315 318 316 315 316 312 313 312 312 312 313 318 320 319 314 312 311 315 314 315 318 319 317 317 318 319 318 318 318 318 317 316 315 313 311 307 306 305 305 304 302 300 299 298
311 314 314 315 315 313 313 312 312 312 312 311 312 312 310 310 310 312 312 313 314 318 316 315 316 319 319 318 318 317 317 316 315 313 310 308 306 306 305 303 301 300 299 298
309 309 308 308 308 308 308 312 311 310 310 311 309 308 308 309 312 311 311 312 311 312 314 318 319 318 318 317 317 317 316 316 314 313 310 308 307 306 304 303 301 300 299 298
306 307 307 306 306 306 307 307 308 309 309 308 310 311 309 309 313 310 309 310 311 311 312 312 314 317 315 317 317 317 316 315 314 312 310 309 307 306 304 302 301 300 299 298
304 304 304 306 305 305 307 305 305 306 307 308 311 312 311 311 310 308 306 308 311 311 312 313 311 311 316 316 317 316 316 315 313 312 310 309 307 306 304 302 301 299 298 298
303 304 305 307 307 308 306 305 307 308 308 311 313 312 310 308 308 307 307 310 309 310 312 312 312 311 310 314 315 315 315 314 313 311 310 309 307 305 303 301 300 299 298 297
302 303 306 304 305 305 305 306 307 308 310 311 304 307 310 309 308 307 308 309 310 311 312 311 310 311 311 310 314 313 314 314 312 311 310 308 306 304 302 301 300 299 298 297
303 303 303 304 306 306 305 304 305 305 308 307 305 308 308 308 308 307 309 309 310 311 311 311 309 311 311 311 312 312 312 313 312 310 309 308 305 303 302 301 299 298 298 297
301 301 303 302 302 303 303 305 305 306 305 304 305 307 307 308 308 308 309 309 311 309 310 309 308 312 314 311 312 311 312 313 312 310 309 306 304 302 301 300 298 298 297 297
301 299 301 299 300 302 305 304 305 305 305 305 305 304 306 307 308 308 309 310 309 309 311 308 305 309 310 310 311 311 312 311 311 309 307 305 303 301 300 299 298 298 297 297
302 302 302 301 303 302 303 303 304 304 304 303 303 304 304 304 304 307 308 310 309 309 311 307 303 305 307 308 310 311 311 310 309 307 305 303 301 300 299 298 298 298 297 297
300 301 303 303 303 303 303 303 303 303 302 302 303 303 303 303 304 303 304 310 310 309 311 307 301 302 306 308 309 310 310 308 306 304 303 301 300 299 298 298 298 297 297 297
302 302 303 303 302 302 302 303 303 302 302 302 302 302 303 302 304 304 306 309 310 309 310 308 305 301 304 307 307 308 307 305 304 302 300 299 298 298 298 298 298 297 297 297
303 303 303 303 302 302 302 302 302 302 302 302 302 302 303 303 304 305 305 307 310 309 309 308 306 308 305 305 305 305 304 302 301 300 299 298 298 298 298 298 297 297 297 296

GFSCGP_850_thetae_015.txt.gz
Theta_e
314 314 314 314 316 313 312 313 314 315 314 314 316 316 316 315 314 315 316 317 318 319 319 319 320 319 319 320 321 321 320 320 320 320 320 319 317 315 314 311 310 311 311 311
313 315 312 311 312 314 315 315 315 315 314 314 315 315 316 315 315 315 315 316 316 316 317 318 318 319 319 319 320 320 320 319 319 319 318 317 316 315 313 310 310 310 310 310
311 311 312 313 314 314 314 314 314 314 314 314 314 317 317 315 315 315 314 316 316 317 318 318 319 319 319 319 319 320 320 319 319 319 318 317 315 313 311 310 310 310 310 309
313 312 313 314 314 314 314 313 314 314 315 317 316 318 318 317 317 315 315 316 318 318 318 318 318 318 318 319 319 319 320 319 318 318 318 317 316 314 312 311 310 310 309 309
313 314 315 316 316 313 317 314 314 315 316 316 318 318 319 317 317 317 318 316 316 318 318 318 317 317 317 317 318 318 319 319 318 318 318 317 315 314 313 311 310 309 309 308
313 312 313 314 314 314 314 315 315 314 316 320 318 318 319 318 316 316 315 316 317 315 312 313 314 314 315 316 316 317 317 318 318 318 318 317 316 315 313 311 310 309 309 307
310 311 312 313 313 312 314 314 317 317 319 320 315 318 318 316 317 315 314 313 312 314 314 314 316 315 312 313 314 315 316 316 317 317 317 317 316 315 314 312 311 309 308 307
313 316 312 314 316 317 315 315 317 318 318 318 315 318 318 314 312 311 311 311 311 312 311 311 312 315 315 313 313 313 314 315 315 315 316 316 316 315 313 312 311 309 309 308
321 317 315 316 315 314 315 316 314 316 318 319 318 317 317 317 313 310 309 308 307 309 310 310 309 312 316 314 313 313 313 313 314 315 315 315 315 314 313 312 310 308 307 307
317 315 316 316 314 313 316 314 316 316 319 319 319 319 319 318 311 310 309 308 306 308 310 310 309 311 314 316 313 312 312 312 313 314 314 315 315 314 313 311 310 308 306 306
313 316 312 311 311 312 311 309 309 313 315 318 319 319 311 311 311 308 306 307 306 308 309 309 310 312 313 315 313 312 311 311 311 310 311 313 314 314 312 311 309 307 306 306
309 313 309 307 306 307 308 311 307 307 307 308 307 306 307 309 306 304 307 306 306 307 308 310 309 310 311 314 314 311 310 310 310 311 310 310 312 313 312 310 309 307 306 305
306 306 305 302 303 304 305 305 304 305 305 304 304 303 304 304 304 305 306 308 308 308 308 308 307 309 310 311 313 313 310 309 309 309 310 309 310 312 312 310 308 306 305 305
306 307 307 304 304 306 305 304 304 305 305 305 305 305 305 305 305 306 307 308 307 308 308 307 308 309 309 311 312 312 312 308 308 308 308 309 309 311 311 310 308 306 305 305
304 305 305 304 304 304 305 305 304 304 304 305 305 306 306 306 305 304 304 305 306 307 308 307 307 308 309 310 311 311 310 310 308 308 307 308 309 310 310 309 308 305 305 304
303 304 304 304 303 303 303 303 304 304 304 305 305 306 306 304 304 304 304 305 305 307 307 307 307 307 308 309 309 310 310 308 309 308 307 307 307 309 310 309 307 305 304 304
302 302 303 303 302 302 304 304 302 301 302 303 305 305 305 305 305 304 305 305 306 306 305 305 305 306 307 309 309 309 310 306 307 308 307 307 306 307 309 308 306 305 304 303
302 302 302 303 302 303 302 302 302 302 303 304 304 306 305 304 303 304 304 304 306 304 304 304 304 305 306 308 309 309 308 309 306 307 307 306 307 306 307 308 306 305 304 303
301 302 302 302 302 302 302 302 301 302 304 304 304 303 303 303 303 303 303 303 303 303 303 303 304 305 307 308 309 308 306 308 306 306 307 306 307 307 307 308 306 304 305 302
299 300 302 303 303 303 301 301 301 303 304 303 303 303 303 303 304 304 302 302 302 302 303 303 304 305 307 309 308 307 304 306 305 306 306 306 306 307 307 307 306 305 304 302
301 300 301 301 303 302 300 300 302 303 304 302 302 302 302 303 303 302 301 302 302 302 303 303 305 307 308 308 307 307 304 303 304 304 305 305 306 306 307 307 306 305 304 302
301 300 300 300 300 300 300 301 302 302 302 302 302 302 302 301 301 301 301 301 302 302 302 302 304 308 308 307 306 305 301 301 303 305 304 305 306 305 306 306 305 305 303 300
301 301 301 301 301 300 300 301 301 301 302 302 302 301 301 301 301 301 301 301 301 301 301 301 304 308 307 306 305 300 299 301 304 305 303 303 304 304 306 306 305 304 302 299
298 299 301 300 301 301 301 301 301 302 301 301 300 300 301 301 300 300 300 301 300 301 301 301 303 308 307 305 301 297 299 300 302 304 303 304 303 303 304 305 305 303 300 298
300 300 301 301 301 301 301 301 301 301 300 299 299 299 300 300 300 300 300 300 299 299 299 301 303 307 307 304 299 297 297 298 300 301 302 300 305 303 304 305 303 301 299 299
300 301 302 302 302 302 302 301 301 300 299 299 298 298 299 300 299 299 299 299 298 298 299 300 302 305 306 303 297 297 296 296 298 298 298 300 303 303 304 301 299 298 298 297

GFSCGP_850_thetae_018.txt.gz
Theta_e
317 317 318 317 317 317 316 316 317 318 318 318 318 318 319 318 318 318 318 318 318 318 318 318 320 320 320 321 322 324 328 326 325 324 323 322 321 320 319 319 318 316 311 310
318 318 317 314 315 316 317 317 317 317 317 317 318 319 320 320 320 319 319 318 319 319 319 319 318 319 319 319 321 321 323 326 325 323 321 321 320 320 319 319 317 314 311 310
317 317 314 315 316 317 318 318 318 318 318 319 320 322 323 322 319 319 319 319 319 319 319 320 320 320 319 319 319 320 320 321 323 321 323 323 318 317 318 318 316 314 311 310
317 316 315 317 317 318 319 318 317 318 320 322 320 323 322 322 321 320 320 320 319 318 317 316 316 316 317 318 318 318 319 319 320 320 321 321 321 319 319 318 317 314 311 309
318 316 316 317 318 317 318 318 318 318 320 321 321 322 321 322 321 320 319 317 316 316 316 315 315 315 316 315 316 317 317 317 318 317 319 320 320 319 318 317 316 313 310 309
316 315 315 317 316 316 316 318 319 319 320 321 321 322 321 321 319 320 318 315 313 312 312 312 313 313 314 315 316 315 316 316 316 315 315 318 319 318 315 315 315 313 310 309
317 317 315 315 318 318 319 321 320 321 323 322 320 320 320 320 318 316 314 312 310 309 309 310 311 311 312 313 315 314 315 316 315 315 314 314 316 317 315 315 316 314 310 309
321 318 316 317 317 318 319 319 319 318 317 318 318 319 319 319 319 315 314 312 308 307 308 308 309 310 311 313 314 314 313 315 314 313 313 312 313 314 314 314 316 314 312 311
320 320 316 313 315 317 318 318 317 320 319 318 317 318 318 317 317 310 310 310 306 306 307 307 308 310 311 312 313 313 312 313 313 313 312 311 311 312 312 312 314 314 312 311
315 311 311 315 312 315 311 310 309 311 309 312 313 313 314 313 309 308 307 306 306 306 307 308 309 310 310 311 313 314 312 310 311 311 311 310 310 310 311 311 311 314 312 310
308 310 311 308 307 306 306 308 309 310 311 311 312 311 310 306 305 305 306 306 306 307 308 309 309 309 310 311 312 314 313 310 309 309 309 309 309 309 309 310 309 312 311 310
306 305 304 305 305 305 306 309 306 307 306 306 307 307 305 304 304 305 306 307 307 307 307 308 308 309 309 310 311 313 313 312 309 308 308 308 308 308 308 308 308 309 310 309
305 305 305 305 308 307 305 305 304 304 307 306 307 306 306 304 305 305 306 306 306 306 306 307 308 308 308 308 309 311 312 312 310 307 307 307 307 307 307 308 308 307 309 308
304 305 305 306 305 305 305 304 304 304 307 306 305 304 304 305 306 306 306 305 305 305 305 306 308 308 306 306 307 310 310 311 311 307 306 306 306 306 306 307 307 306 308 308
305 305 305 305 304 304 304 304 304 304 304 306 305 304 304 305 306 305 306 305 304 305 305 306 305 305 305 305 306 309 309 310 311 309 306 306 306 306 306 306 306 306 307 307
303 303 304 304 303 303 303 303 304 304 304 304 303 304 305 304 306 305 304 304 304 304 305 305 304 304 305 305 306 308 309 309 310 310 307 305 305 305 305 305 306 305 306 305
304 303 303 304 303 303 304 304 303 303 303 303 304 304 305 306 305 304 304 304 304 304 303 303 304 305 305 306 306 308 309 309 309 309 306 306 305 305 305 305 305 304 305 304
303 303 304 304 304 304 304 303 303 303 303 303 304 305 305 304 304 304 304 303 303 303 303 304 304 305 305 306 306 308 309 309 309 307 306 306 304 304 304 304 304 304 304 304
303 304 304 305 304 304 303 302 303 302 303 304 304 305 304 303 304 304 304 303 303 303 303 304 304 304 304 304 306 308 308 309 307 306 304 305 304 304 304 304 304 304 304 303
303 304 305 304 305 305 303 303 302 303 305 304 303 303 304 304 305 307 303 303 303 303 303 304 304 304 303 303 305 309 308 308 306 303 302 303 305 303 303 303 303 303 303 303
303 303 305 305 305 304 303 302 302 303 304 303 302 303 303 304 303 303 303 303 303 302 302 302 302 303 303 303 306 308 308 306 304 302 299 300 303 303 303 303 303 302 303 302
302 303 303 303 303 303 302 302 302 303 302 302 302 303 302 301 301 301 301 301 301 301 301 301 302 302 302 303 306 307 305 304 300 298 299 301 304 302 303 303 302 302 302 302
302 302 302 302 303 302 302 302 302 302 302 302 302 302 301 300 300 300 300 301 301 301 301 301 301 301 302 304 306 306 303 301 298 298 302 305 303 302 302 302 302 302 302 303
302 301 304 302 302 302 302 302 302 302 302 302 302 301 300 300 299 299 300 301 300 300 300 300 300 300 301 304 304 304 301 299 297 299 304 304 302 302 302 301 301 301 301 301
301 301 301 302 302 302 303 303 302 301 301 301 300 299 299 299 299 299 300 300 300 299 299 300 299 299 300 303 303 301 300 297 297 300 302 301 303 302 301 300 300 300 301 304
301 302 303 304 303 302 302 301 300 300 300 300 299 299 298 298 298 298 299 299 299 299 299 299 298 298 299 301 303 301 299 297 296 298 299 299 300 299 299 299 299 300 304 303

GFSCGP_850_thetae_021.txt.gz
Theta_e
320 319 320 320 319 318 318 318 318 319 321 320 320 321 322 322 322 322 322 321 321 321 320 320 320 320 320 321 322 324 326 330 334 330 326 322 320 319 317 316 315 314 312 314
320 323 320 317 318 317 318 320 322 322 322 322 322 322 323 324 324 323 322 321 321 321 321 320 319 320 320 321 321 322 323 326 331 331 327 324 321 319 317 316 316 316 316 316
321 322 318 317 319 320 321 321 322 321 321 321 323 323 324 324 324 322 321 320 319 319 319 318 318 318 318 319 319 320 321 323 325 331 329 325 322 320 318 317 317 317 316 316
321 319 318 320 320 320 322 321 320 320 321 322 322 323 323 323 323 322 320 318 315 314 314 314 315 315 315 316 317 319 318 320 321 323 329 327 323 321 320 319 317 318 317 316
320 319 319 319 319 318 319 319 319 320 321 323 323 323 323 323 322 321 318 314 312 311 310 311 311 312 313 313 314 316 317 317 319 320 323 327 324 322 319 317 316 316 317 316
319 318 318 318 318 318 318 321 321 322 323 324 323 323 323 323 322 319 317 316 314 310 309 310 310 310 310 312 313 314 315 316 316 318 319 323 324 321 320 316 315 316 316 316
320 319 317 319 320 321 321 319 319 321 327 327 322 320 321 321 319 316 313 312 310 308 308 309 309 309 310 311 311 312 314 315 315 316 318 319 322 321 320 318 316 314 314 315
323 322 318 316 317 319 319 318 319 319 319 320 319 319 319 321 316 313 310 308 307 307 308 308 309 309 309 310 310 312 313 315 315 314 317 317 318 319 319 318 317 314 313 316
318 319 317 313 315 315 317 316 315 319 318 318 317 317 318 317 313 308 306 306 305 306 307 308 308 309 309 310 310 312 312 314 315 314 314 316 316 317 317 317 318 314 312 313
314 309 311 314 310 313 314 310 310 312 311 312 313 313 313 312 308 307 306 305 305 306 307 307 308 308 309 309 310 310 312 314 315 314 312 313 314 315 315 315 316 315 312 311
308 308 311 313 309 309 309 308 309 310 312 312 312 312 312 308 306 306 306 305 305 307 306 307 307 307 308 309 309 309 309 312 314 314 312 311 312 313 313 313 314 315 313 311
306 305 305 307 308 307 306 308 309 309 309 309 309 310 308 307 306 305 305 305 306 306 306 306 306 306 307 309 308 306 306 310 312 313 313 311 310 311 311 312 313 314 312 311
305 307 307 309 310 309 309 309 307 307 309 309 308 307 307 306 306 304 304 305 306 306 305 305 305 306 307 306 305 306 306 308 310 311 312 311 310 309 310 311 312 312 312 310
304 305 306 307 308 308 307 307 306 306 308 307 306 305 306 305 305 304 305 305 305 305 305 304 305 306 306 304 305 306 306 307 308 309 311 312 309 309 309 310 310 311 311 310
305 306 307 306 306 306 305 305 305 305 305 305 305 305 305 305 305 305 305 305 305 305 304 304 304 304 304 304 305 306 307 307 308 309 310 310 310 307 308 309 309 310 310 309
305 306 306 305 305 304 304 305 305 305 305 305 304 304 304 304 304 305 305 305 304 304 305 304 303 304 304 304 305 306 307 307 308 309 308 309 309 307 307 307 308 309 309 308
305 306 306 305 304 304 305 306 305 304 304 304 304 304 304 305 305 305 304 304 304 305 304 304 304 304 304 305 305 305 305 306 308 309 309 309 307 307 306 306 307 308 308 308
305 305 305 306 305 306 306 305 305 304 304 304 304 304 305 305 304 304 304 304 304 304 304 304 304 304 304 304 304 305 304 304 307 308 308 308 306 306 306 306 306 307 308 307
304 305 306 306 305 305 305 304 304 304 304 304 304 306 304 304 304 304 303 303 303 303 303 302 302 302 302 303 303 303 304 304 307 308 307 307 305 304 304 305 306 306 307 307
304 304 306 306 307 305 304 304 303 303 305 304 304 304 304 303 306 307 303 302 302 302 302 302 302 302 302 302 303 303 303 304 306 307 306 305 303 303 301 305 305 306 307 306
304 305 307 307 308 305 304 303 303 304 305 304 303 303 304 305 304 303 302 302 301 301 301 301 302 301 302 302 302 302 303 305 306 305 304 304 301 300 300 304 305 305 306 306
303 304 304 304 305 304 303 303 303 304 303 304 303 303 303 303 303 303 302 301 301 300 301 301 301 301 301 301 301 302 303 305 304 303 303 302 300 299 300 303 305 305 305 305
303 303 304 304 305 303 302 302 302 303 303 304 303 303 303 303 302 300 300 301 300 300 300 301 301 301 301 301 301 301 302 304 302 302 302 300 300 302 302 304 305 305 305 305
303 302 304 304 303 302 301 301 303 304 303 303 302 301 301 301 301 301 301 300 300 300 300 300 300 300 300 300 300 300 300 303 302 302 301 299 302 306 304 303 304 304 305 304
302 302 302 303 302 302 302 302 302 302 302 301 301 301 300 300 300 300 299 300 299 299 299 300 300 300 300 300 300 299 299 302 302 301 300 299 304 304 302 303 303 304 304 303
302 303 303 305 302 302 303 302 301 301 301 300 300 300 299 299 300 299 298 298 298 299 299 299 299 299 299 299 299 299 298 302 302 298 298 299 301 303 303 302 302 302 303 303

GFSCGP_850_thetae_024.txt.gz
Theta_e
321 320 321 320 319 318 317 317 318 320 322 322 322 322 321 321 322 323 324 321 319 318 317 316 316 318 319 320 321 321 322 324 328 335 336 335 328 324 322 320 318 316 315 313
321 322 320 319 319 319 320 321 321 322 323 320 320 320 321 322 323 320 319 316 315 314 313 313 313 314 314 315 317 320 320 321 322 327 334 335 332 325 322 320 318 316 315 314
322 323 320 318 320 320 321 321 322 321 321 320 321 322 323 321 320 317 314 312 311 310 310 311 311 311 311 312 313 314 317 319 319 321 328 334 331 326 323 320 319 318 315 315
321 320 319 320 320 320 320 320 320 320 320 321 320 321 321 321 319 316 314 313 311 309 309 310 310 310 310 310 311 311 312 312 314 317 319 326 332 328 325 322 321 319 316 315
319 320 320 319 319 319 319 320 320 321 321 321 322 323 322 321 319 317 316 312 308 308 309 309 309 309 309 309 310 310 310 312 311 308 313 318 319 330 328 324 321 319 317 315
319 319 319 318 319 320 319 321 319 318 319 323 322 323 322 321 318 312 310 308 307 307 308 308 308 308 308 309 310 310 311 312 312 312 312 312 317 319 328 325 323 320 318 316
321 320 319 318 317 321 320 318 319 322 326 327 320 319 321 316 311 308 307 307 306 305 307 307 307 307 308 308 309 310 310 311 312 314 315 314 314 316 320 327 325 321 318 316
321 321 319 316 316 317 315 317 319 320 320 321 318 318 320 312 308 307 306 306 306 305 307 307 307 307 307 307 308 309 310 310 310 312 315 315 313 314 316 321 324 323 319 316
316 319 316 313 315 314 316 315 311 315 316 316 316 317 315 309 307 306 306 306 305 305 307 307 306 306 307 306 307 308 309 308 307 309 312 315 314 312 313 316 322 322 320 317
311 308 310 313 312 312 313 312 310 311 311 312 312 311 311 307 306 306 306 305 305 305 306 306 305 306 305 306 307 308 308 307 306 306 310 312 313 312 311 313 316 320 320 319
308 307 310 309 310 309 309 308 309 309 308 309 312 311 309 306 306 306 306 305 304 305 306 306 306 305 305 304 306 306 305 305 306 306 308 310 311 312 310 311 312 317 318 317
306 305 305 307 308 308 307 306 307 311 310 309 307 308 307 306 306 306 306 304 305 305 305 305 306 305 304 306 304 304 305 305 306 306 307 307 310 311 311 309 310 312 315 314
305 305 305 309 310 309 309 309 309 307 308 308 308 307 307 306 305 306 305 305 305 305 305 305 305 305 305 304 303 304 304 306 307 307 307 308 309 310 311 309 309 309 311 314
304 304 304 307 307 307 307 307 306 306 306 306 306 305 305 305 305 305 304 304 305 305 304 304 305 305 304 304 304 305 305 305 306 306 307 309 309 308 308 309 309 308 310 313
306 306 306 306 306 306 305 305 305 305 305 304 305 305 305 304 303 304 304 305 305 304 304 305 305 305 304 304 304 304 305 305 305 305 305 307 308 308 307 308 309 308 308 310
305 305 306 306 306 306 305 305 305 305 305 305 304 304 304 304 304 304 305 304 304 304 305 305 304 304 304 304 304 304 303 304 304 304 304 306 308 308 307 306 307 308 307 309
305 306 307 306 305 305 305 306 305 305 304 304 303 304 304 305 305 305 304 304 303 304 304 303 303 303 303 302 302 303 303 303 304 303 304 304 307 308 307 306 305 307 307 308
305 305 306 306 305 306 307 305 305 304 304 304 304 305 306 305 304 304 304 304 304 303 303 302 302 302 302 302 302 302 302 303 303 303 303 304 307 307 306 305 304 304 306 307
304 304 305 305 306 305 305 305 304 304 303 304 304 305 304 304 304 303 303 304 304 303 303 302 301 301 301 301 302 302 302 302 303 302 303 306 306 306 304 305 303 303 306 306
305 304 305 304 304 305 305 305 304 303 303 304 303 303 304 304 304 303 303 303 303 303 303 301 301 301 301 301 302 301 302 301 302 302 304 305 303 303 303 303 302 301 304 306
304 304 305 306 305 306 305 303 303 302 302 303 302 303 304 304 304 303 303 303 303 302 301 301 300 300 300 301 301 301 301 302 301 301 303 303 303 302 302 302 300 300 303 306
305 305 304 304 304 304 304 303 302 302 302 302 304 304 303 303 302 302 302 302 301 301 300 300 301 300 300 300 301 301 301 300 300 300 301 301 301 301 302 300 300 300 302 305
304 303 305 303 304 303 303 302 302 302 303 303 303 302 302 302 301 301 301 301 301 300 300 300 300 300 299 300 300 300 300 300 300 300 300 300 301 301 301 299 301 300 301 304
303 303 302 302 302 302 302 302 302 302 303 302 301 301 301 301 300 300 300 300 299 299 300 300 299 298 299 300 300 300 299 299 299 299 299 299 301 301 300 303 305 302 303 304
302 302 302 301 302 302 302 302 303 302 301 301 301 300 299 299 299 298 298 297 297 297 297 297 297 298 297 298 298 298 298 298 298 298 298 300 300 299 300 303 304 304 304 305
301 301 302 302 302 302 302 302 301 300 300 299 299 298 297 296 296 296 296 296 295 295 296 296 296 296 297 296 296 295 295 296 298 298 299 300 299 298 299 302 303 304 303 304

GFSCGP_850_thetae_027.txt.gz
Theta_e
319 315 314 317 316 317 316 316 315 316 318 317 317 316 317 318 315 311 310 309 310 310 309 309 310 311 312 313 314 314 315 317 320 325 334 335 333 334 332 331 330 328 327 322
315 316 317 318 318 317 317 317 316 317 319 318 316 317 316 313 311 310 309 308 309 309 309 309 309 310 310 310 311 311 312 311 311 312 315 322 331 329 332 333 330 327 326 324
317 319 319 318 318 318 318 318 317 318 317 317 317 316 317 313 312 310 308 308 308 308 307 307 307 307 308 308 309 310 310 310 310 310 310 312 323 327 325 326 326 325 324 324
316 318 318 318 318 317 316 318 318 318 317 316 316 317 316 313 312 310 306 307 308 307 307 307 306 306 307 306 307 309 310 309 309 309 309 311 312 312 316 322 322 325 325 323
315 317 317 317 318 318 316 317 317 318 317 318 318 318 316 314 309 305 304 305 305 307 307 307 306 306 305 307 307 308 309 310 310 310 310 313 315 315 312 315 320 323 322 322
315 318 317 317 317 317 317 317 313 313 314 317 317 319 317 312 306 304 304 305 305 304 307 307 306 305 305 306 306 306 306 308 309 309 310 312 314 315 315 313 314 319 324 321
316 317 317 315 315 316 312 311 313 315 318 319 316 315 311 305 304 304 304 305 305 304 307 306 306 305 305 306 304 306 306 308 309 308 307 307 310 313 314 314 313 313 320 323
312 316 317 311 314 314 312 313 314 318 317 317 314 312 310 304 305 305 305 305 304 304 306 306 305 305 305 305 304 304 306 308 306 306 306 305 306 308 310 312 313 311 312 321
312 315 309 313 313 312 312 310 308 310 312 312 313 310 307 304 304 304 305 305 304 304 305 305 305 305 305 305 304 305 305 305 305 306 305 305 306 306 306 308 310 312 310 313
307 305 307 312 311 310 310 310 309 305 307 307 307 308 310 304 303 304 304 304 304 304 305 305 305 304 304 304 304 305 304 304 303 304 305 306 307 306 306 306 307 309 310 310
304 304 304 305 307 306 305 305 305 305 304 305 306 306 302 303 304 304 304 304 304 305 305 304 304 303 303 304 304 303 303 302 304 304 306 306 307 307 307 308 309 311 309 309
303 302 301 302 305 307 306 305 304 302 306 304 301 305 303 304 305 304 304 304 304 305 304 304 303 303 304 304 304 304 303 303 304 305 305 305 304 306 307 308 308 307 309 308
303 301 299 304 307 306 306 306 305 304 302 302 302 305 306 304 304 304 304 303 304 305 304 304 304 305 305 304 304 303 304 304 303 303 303 304 304 305 307 307 306 307 307 308
304 302 300 300 303 304 304 305 304 303 297 303 304 304 303 303 303 303 302 304 304 304 303 303 304 303 304 303 303 303 303 303 302 301 303 303 303 304 303 306 307 308 306 308
304 304 304 304 305 305 305 305 304 304 303 302 303 303 303 302 300 303 304 304 303 303 303 303 303 303 303 302 302 302 302 301 302 302 302 302 303 303 303 304 306 307 306 306
303 302 304 304 304 304 305 304 304 303 303 303 303 303 301 303 305 304 304 303 303 303 303 303 303 303 302 302 301 300 301 301 301 302 302 302 303 303 302 304 307 306 306 305
302 302 302 299 303 304 302 304 304 303 303 302 302 302 304 304 304 303 303 303 303 303 303 304 303 302 302 301 300 300 300 301 302 301 301 303 302 301 303 306 305 304 305 305
302 302 300 299 301 300 302 303 303 303 303 302 302 303 304 303 302 302 303 303 302 303 303 303 302 302 302 301 300 300 300 300 301 301 301 300 301 302 305 304 303 302 303 303
301 300 299 298 298 301 303 304 303 303 302 303 302 302 302 301 301 302 302 302 303 302 302 302 302 302 301 300 300 300 300 300 300 301 300 301 301 301 302 302 301 302 302 303
301 300 300 301 296 297 301 303 303 302 301 302 301 301 302 303 303 303 303 302 302 302 301 302 301 301 300 300 299 300 300 299 300 300 301 300 299 300 301 300 300 301 302 301
300 299 302 302 297 300 302 303 302 299 299 301 301 303 303 302 302 301 301 301 301 301 301 300 300 300 299 299 299 300 299 299 299 300 300 299 299 300 299 300 300 301 301 300
300 297 298 299 297 301 302 301 301 300 301 301 302 302 301 301 300 300 300 300 299 299 299 299 298 298 299 298 299 298 298 299 300 299 299 299 299 298 299 299 300 300 300 299
301 300 299 299 299 301 302 302 301 301 302 302 300 300 300 300 299 299 298 297 296 296 296 296 296 296 296 297 297 297 298 298 298 298 298 298 297 298 298 299 300 299 301 300
300 302 299 299 300 301 301 301 301 302 302 300 299 299 299 298 297 295 295 295 295 295 295 295 295 295 295 296 296 296 296 297 296 296 296 295 296 298 299 300 300 299 302 303
300 300 299 298 300 301 301 301 302 301 298 298 298 296 295 295 294 295 295 295 295 295 295 295 295 296 296 295 295 295 296 296 296 295 295 296 297 298 299 299 299 299 304 303
301 300 297 300 300 300 301 302 301 298 297 296 295 295 295 294 295 294 294 294 294 294 295 294 294 294 294 295 295 295 296 296 294 294 294 296 296 298 299 298 298 300 304 304

GFSCGP_850_thetae_030.txt.gz
Theta_e
318 314 314 314 314 314 315 315 315 314 316 316 316 312 310 308 308 307 308 308 307 307 306 306 306 306 306 307 308 309 310 311 312 312 314 318 323 329 330 330 329 328 330 330
313 314 316 315 317 317 317 317 315 315 317 317 315 311 310 308 308 307 307 307 307 306 306 306 306 305 305 304 305 306 307 308 309 309 310 310 311 318 321 326 327 323 324 326
315 318 317 317 317 316 316 317 317 316 316 315 315 314 311 310 306 305 307 307 307 306 306 306 306 305 305 304 304 304 306 307 308 308 308 309 311 312 313 316 319 322 323 319
315 317 317 317 317 316 316 317 317 317 316 315 315 314 313 309 304 303 304 305 306 306 306 306 305 305 305 305 303 304 304 306 308 309 308 309 310 311 312 313 313 313 319 320
314 316 316 317 317 317 316 316 316 317 316 317 316 316 314 306 304 303 303 304 304 306 306 306 305 304 305 304 304 304 303 306 308 308 308 307 307 306 307 311 312 313 312 314
315 316 316 316 315 316 314 313 310 312 313 314 314 316 314 305 304 303 304 304 304 304 306 305 305 304 304 304 304 302 303 306 307 306 306 305 305 305 305 305 307 309 310 312
312 316 315 313 313 312 310 310 311 313 314 314 314 312 309 302 303 304 304 305 304 304 306 305 305 305 304 304 303 303 302 304 306 306 306 305 305 305 305 305 305 305 305 306
311 313 310 311 313 312 311 311 310 310 312 314 312 310 305 303 304 304 304 304 304 304 305 305 305 304 304 303 304 304 303 304 305 304 303 302 304 305 306 307 306 306 305 307
307 310 307 311 311 310 310 309 309 309 308 309 310 305 303 302 303 303 304 304 303 304 305 305 304 304 303 303 304 304 304 304 304 303 303 302 305 306 305 306 306 306 305 308
305 303 305 307 310 307 309 309 310 305 307 307 305 306 306 302 303 302 303 303 303 303 304 304 304 304 303 303 303 303 304 304 303 303 302 301 302 304 304 304 305 306 307 306
303 303 303 303 305 305 304 304 304 304 303 304 303 304 302 302 303 302 303 303 303 303 304 304 304 304 303 304 304 304 304 304 303 303 303 303 301 301 304 303 304 307 307 305
302 301 301 302 302 304 304 304 301 301 303 303 299 303 302 301 303 303 303 303 302 304 304 304 303 303 303 303 303 304 303 302 302 303 302 300 300 302 303 302 304 304 304 305
301 299 298 302 305 305 305 305 304 303 300 301 302 304 302 304 303 303 302 304 304 304 303 303 303 302 302 303 303 302 302 302 302 301 300 301 301 300 301 303 303 303 303 304
303 299 298 301 302 303 303 304 304 303 297 302 303 304 304 303 302 301 303 304 303 303 303 303 302 302 303 303 302 302 302 301 299 299 300 301 301 301 301 302 303 303 302 304
302 303 303 302 303 304 304 304 304 303 303 302 303 303 303 303 299 302 304 303 303 302 302 302 302 303 302 302 302 302 301 301 299 299 299 300 301 300 302 302 301 301 305 306
301 301 303 302 303 303 304 304 304 303 303 303 303 303 302 302 303 304 303 302 301 301 302 302 302 302 301 301 301 301 301 301 300 299 299 299 300 300 301 300 302 304 305 303
301 301 300 299 301 301 301 302 303 303 302 302 301 302 301 302 302 301 301 301 300 301 302 302 302 302 301 301 301 302 301 300 300 299 299 300 299 300 300 301 301 300 301 301
300 301 299 298 299 298 301 302 302 302 302 302 302 302 302 302 301 301 302 302 302 302 301 301 301 301 301 301 301 301 301 299 298 298 299 299 299 299 300 300 298 300 301 300
300 299 298 297 297 300 301 302 303 302 302 301 301 301 301 301 302 302 301 301 300 300 300 300 300 300 300 300 300 300 300 298 299 299 299 299 299 299 300 299 298 300 300 299
299 299 298 299 296 297 300 302 302 301 300 301 300 300 301 301 300 300 299 299 299 299 298 298 298 297 298 297 298 298 298 298 298 298 298 298 298 299 299 299 299 299 298 298
300 299 301 300 295 299 300 301 302 300 299 300 300 301 300 299 299 298 298 298 297 296 295 295 295 295 295 295 296 296 296 297 297 298 297 298 299 299 299 298 298 297 297 298
300 297 298 298 297 300 301 301 300 299 300 301 301 299 298 298 298 298 296 295 294 294 294 294 294 294 294 295 295 295 295 296 296 296 297 298 296 297 297 296 295 295 298 300
301 299 298 299 299 301 301 301 301 300 301 301 299 298 297 296 295 295 294 294 294 294 294 294 294 294 294 294 295 295 295 295 295 296 296 295 297 296 296 295 297 297 299 299
300 301 299 299 299 300 301 301 301 301 301 299 297 296 295 295 294 294 294 294 293 293 293 293 294 294 294 294 294 294 294 295 295 295 295 296 295 295 295 296 297 298 299 298
301 299 298 298 299 300 301 301 301 301 299 297 296 295 294 294 293 293 293 293 293 293 293 294 294 294 294 294 294 294 294 294 295 295 295 295 294 294 294 295 296 299 299 298
300 300 298 300 300 300 300 300 301 299 297 296 295 294 294 293 293 293 293 293 293 293 294 294 294 294 295 295 294 294 293 294 294 295 294 294 294 294 295 295 298 298 297 298

GFSCGP_850_thetae_033.txt.gz
Theta_e
316 313 313 313 313 314 314 314 314 313 315 314 309 308 307 306 306 306 306 306 306 306 305 305 305 305 305 304 304 304 305 305 306 307 309 310 311 319 322 325 328 330 330 330
312 314 314 314 315 316 316 315 314 314 315 315 309 308 307 307 306 306 306 306 306 306 305 305 304 304 304 303 303 303 303 304 305 306 307 307 308 310 312 314 318 321 322 323
315 316 316 316 315 316 315 315 315 315 315 312 309 310 307 305 304 305 306 306 306 306 305 305 304 304 304 304 303 303 302 302 305 306 306 306 306 306 306 308 310 312 314 316
314 315 316 316 316 315 315 315 316 316 315 314 314 314 308 305 303 302 303 304 306 306 306 305 304 304 304 304 303 303 303 303 302 305 306 306 306 305 305 305 304 305 309 311
314 315 315 316 316 316 315 315 315 316 315 315 314 314 311 302 304 303 303 304 303 305 306 305 304 304 304 304 303 303 303 303 302 302 304 306 305 303 304 305 304 304 304 305
315 316 315 315 314 314 311 311 309 311 311 313 311 315 311 306 302 303 303 304 304 303 304 305 305 304 304 304 303 303 303 303 302 302 303 304 302 302 303 304 307 306 305 304
309 314 312 312 312 311 309 307 307 309 313 312 312 312 308 302 301 303 303 304 304 304 304 305 305 304 304 304 303 303 303 303 303 303 303 303 303 302 305 306 306 305 306 306
310 311 309 311 312 311 310 309 307 309 308 310 310 309 305 302 303 304 304 303 303 303 304 305 305 304 304 303 303 303 303 303 303 303 303 303 303 302 301 303 304 304 303 304
305 307 305 309 309 308 308 308 308 308 306 306 307 307 302 301 302 303 303 303 303 303 304 305 304 304 304 303 303 303 303 303 303 303 302 302 303 302 302 300 299 303 302 304
304 302 304 305 308 306 308 306 309 303 306 306 303 303 306 301 301 301 300 302 302 303 303 304 304 304 303 303 303 303 303 303 303 303 303 302 303 303 301 300 300 303 302 304
302 302 302 303 304 304 303 304 303 303 302 304 303 303 301 300 301 301 301 302 303 303 304 304 304 304 303 302 301 302 302 303 303 303 302 301 301 300 299 299 298 299 301 303
302 300 300 302 301 301 303 303 301 302 303 301 298 302 302 300 302 302 302 302 303 303 303 303 302 302 302 301 301 302 303 303 302 302 301 300 298 298 299 300 299 301 302 303
300 298 299 302 303 304 305 304 303 300 299 300 301 302 300 300 301 302 302 302 303 303 302 301 301 301 301 301 302 302 301 301 301 301 301 300 299 299 299 301 299 300 300 302
303 297 298 303 303 303 302 302 302 301 297 300 303 303 303 303 301 302 302 302 303 302 301 300 300 301 301 301 301 301 301 300 300 301 301 300 299 299 299 300 299 300 300 300
301 301 301 301 300 301 302 303 303 302 301 302 302 301 302 302 302 302 301 302 301 300 300 301 300 301 301 301 300 301 300 301 300 301 300 300 300 299 299 299 298 300 300 301
300 300 302 301 302 302 302 302 302 303 302 302 302 302 303 303 302 302 302 300 300 301 301 301 300 299 299 299 300 300 300 301 300 299 301 300 300 299 297 299 299 299 299 301
300 300 299 298 299 300 300 301 302 302 301 302 302 302 301 300 301 301 300 300 301 301 300 299 298 298 299 299 299 299 299 299 299 299 299 299 299 298 298 299 299 298 300 300
299 300 298 297 298 299 302 300 301 302 301 301 301 301 301 301 300 300 301 301 300 299 298 298 297 297 297 297 297 296 297 297 297 298 298 299 298 298 298 298 298 298 300 299
300 299 297 296 297 300 301 301 300 301 301 301 301 300 300 300 301 300 300 298 297 297 297 296 295 295 294 294 294 295 295 295 295 296 297 297 297 298 298 298 298 299 299 299
298 298 298 298 295 297 300 301 302 300 300 300 300 300 299 300 298 299 297 297 296 295 294 294 294 294 294 294 294 294 294 294 294 295 295 296 296 297 297 297 298 299 298 298
299 298 300 299 294 299 299 300 301 300 299 300 300 301 300 298 298 297 296 295 294 294 294 294 293 293 293 293 293 293 294 294 294 294 295 295 296 296 296 298 297 296 297 296
300 298 298 298 296 301 301 300 300 300 300 300 301 300 298 297 296 295 294 294 293 293 293 293 293 293 293 294 294 294 294 294 294 294 295 295 295 295 296 296 296 296 295 295
301 301 298 299 300 300 301 301 301 300 300 301 299 298 296 295 295 294 293 293 293 293 293 293 293 294 294 294 294 295 295 293 294 294 294 294 295 295 295 296 295 295 295 296
299 300 298 301 299 299 300 302 301 300 301 300 298 297 296 294 294 293 293 293 292 293 293 293 294 294 294 294 295 295 295 294 293 294 294 293 294 295 295 294 294 293 295 295
301 299 300 298 299 300 300 300 300 300 301 300 298 297 295 294 293 293 292 292 292 292 293 293 294 294 295 295 295 295 296 294 294 293 293 293 294 294 293 293 293 294 295 296
299 298 300 301 301 300 300 300 300 300 300 298 297 295 294 293 293 292 292 292 292 293 293 294 295 295 295 295 295 296 295 295 294 293 294 294 294 294 294 294 294 295 297 298

GFSCGP_850_thetae_036.txt.gz
Theta_e
315 313 313 313 313 313 313 313 313 312 313 308 307 306 306 305 305 305 305 305 305 305 304 304 304 304 304 304 304 303 303 303 303 303 303 305 306 309 312 314 316 319 324 327
311 313 314 313 314 315 315 315 313 313 314 308 307 307 306 306 305 305 305 305 305 305 304 304 304 304 304 304 304 303 303 303 303 303 303 302 303 304 305 306 307 310 313 316
314 316 315 315 315 315 314 314 314 315 313 308 306 308 305 304 304 305 305 305 305 305 305 304 304 304 304 304 303 303 303 303 302 302 302 302 302 302 303 304 304 304 304 306
314 314 315 315 315 314 315 313 315 315 315 312 310 311 306 303 302 302 303 303 304 305 306 305 304 304 304 304 303 303 303 303 302 302 302 303 304 303 302 301 302 304 304 303
313 314 314 316 315 315 314 312 313 314 314 313 312 314 310 301 302 302 303 303 303 303 303 305 305 304 304 304 303 303 303 303 303 302 302 302 303 303 302 302 302 305 306 305
314 314 313 314 313 313 310 311 308 309 309 311 310 312 310 302 301 302 303 303 303 304 304 304 305 304 304 304 303 303 303 303 302 302 302 302 302 302 302 302 301 304 305 305
309 313 309 311 312 309 308 304 306 307 310 312 310 312 308 303 300 302 303 303 304 303 303 304 304 304 304 304 303 303 303 303 303 303 302 302 303 302 302 302 302 300 300 301
309 312 309 309 311 310 309 308 306 308 306 306 307 309 307 300 303 303 303 303 303 303 303 304 304 304 304 304 303 303 303 303 303 303 303 303 303 302 302 303 302 301 300 300
305 305 304 306 306 307 307 306 307 306 305 304 304 305 303 301 300 302 302 302 302 303 303 303 303 303 304 303 303 302 302 301 301 302 302 303 303 302 302 302 302 301 299 299
303 303 303 304 307 304 307 305 306 302 306 305 302 302 305 300 299 299 301 302 302 303 303 303 302 302 301 301 300 300 300 300 301 302 302 302 302 302 301 301 299 298 300 299
302 300 302 302 304 304 302 304 303 302 302 305 303 303 300 301 300 299 301 302 302 302 303 302 301 301 300 300 300 300 300 301 300 301 300 300 301 301 301 301 298 299 299 299
301 298 300 302 301 301 303 303 301 303 303 299 298 302 300 299 300 302 301 302 302 302 302 301 300 300 300 300 300 300 300 300 301 299 301 300 300 300 301 300 299 299 299 299
300 298 300 302 302 304 304 303 301 299 298 299 301 302 300 300 300 301 301 302 301 302 301 300 300 300 300 300 299 299 299 300 299 300 300 298 300 300 301 299 299 299 298 298
302 297 299 304 304 302 303 302 301 300 297 300 301 303 302 300 299 301 302 302 301 301 300 300 300 300 299 298 297 297 298 298 299 299 298 299 300 298 299 300 300 299 298 299
299 301 299 299 299 299 299 300 301 301 300 301 302 300 301 300 299 302 301 301 300 300 300 300 299 298 297 297 297 297 297 297 297 298 298 299 299 299 298 299 299 299 298 298
299 300 301 300 301 301 302 302 301 302 302 301 302 302 302 302 302 301 301 300 300 300 300 299 297 296 296 296 296 296 296 295 296 296 296 296 297 298 298 298 298 298 297 298
299 299 299 297 298 299 300 300 301 301 301 301 301 302 300 300 300 300 300 301 300 299 298 296 296 296 295 294 294 294 294 294 294 294 294 295 295 296 297 297 298 297 297 298
298 299 298 297 297 299 303 300 300 301 301 301 301 300 300 300 300 300 301 300 299 297 296 295 295 294 294 294 293 293 293 293 293 293 293 294 294 295 295 296 297 297 297 297
299 299 297 296 296 299 302 300 300 300 302 301 301 300 300 300 300 300 299 298 296 295 294 293 293 293 293 293 293 293 293 293 293 293 294 294 294 294 295 295 296 296 296 297
297 297 297 297 294 298 302 300 301 300 300 299 300 299 299 300 298 299 298 295 294 294 293 293 293 293 293 293 294 294 294 294 294 294 294 294 294 294 294 295 296 296 296 297
298 298 299 298 294 298 298 300 301 300 303 299 300 300 301 298 299 298 295 294 293 293 293 293 293 293 293 294 294 295 295 295 295 295 295 294 295 293 295 294 295 295 296 295
300 298 297 297 296 301 300 299 300 300 300 300 300 301 300 298 297 295 294 293 293 293 294 293 293 293 294 295 295 295 295 295 295 295 295 293 294 294 294 294 295 295 295 295
299 300 298 298 299 300 301 302 302 300 300 300 301 300 298 297 296 294 293 293 292 293 292 293 293 293 294 295 294 294 295 296 296 296 295 294 293 294 293 293 294 295 295 294
297 299 298 298 298 300 301 301 302 301 300 300 300 299 297 296 294 293 293 292 292 293 292 293 293 293 294 294 294 294 295 295 295 295 295 295 293 293 294 294 293 293 293 293
299 298 298 297 300 301 301 301 301 300 300 300 299 298 297 294 294 293 292 292 292 292 292 293 293 293 294 294 294 294 295 295 295 295 295 295 293 294 294 294 293 293 293 294
298 298 298 303 305 302 301 301 301 300 300 300 299 298 296 294 293 292 291 291 291 292 292 292 293 293 294 294 294 294 294 295 295 295 296 295 295 294 294 294 294 294 294 295

GFSCGP_850_thetae_039.txt.gz
Theta_e
314 315 315 314 313 313 313 314 314 313 313 311 309 308 307 305 304 305 305 305 305 304 304 304 304 304 304 304 303 303 303 303 303 303 303 303 303 303 302 304 306 308 312 316
314 315 313 313 313 314 315 315 315 313 313 312 308 308 307 306 305 305 305 305 305 305 304 304 304 304 304 304 303 303 303 303 303 303 302 302 301 302 302 302 302 303 304 305
315 315 314 314 314 315 314 314 314 315 313 308 308 310 307 306 305 305 305 305 305 305 305 305 304 304 304 304 303 303 303 303 303 302 302 302 302 302 301 301 301 301 301 303
314 313 315 314 315 314 316 313 315 315 316 317 310 314 308 304 304 303 303 303 303 304 304 304 305 304 304 304 303 303 303 303 303 303 302 302 302 302 302 301 301 301 302 302
313 313 315 315 315 314 316 311 312 314 315 314 313 316 314 304 304 303 303 303 303 303 304 304 303 304 304 304 304 303 303 303 303 303 303 302 303 302 302 302 302 302 301 301
312 313 312 313 312 312 310 310 309 311 312 314 311 316 316 305 305 303 303 303 303 304 304 303 304 304 304 304 304 303 303 303 302 302 303 303 303 302 302 302 302 302 302 301
310 312 309 311 311 309 309 307 311 312 312 315 311 314 316 306 303 304 303 303 303 303 303 303 303 304 304 304 303 303 302 301 300 301 301 301 302 302 302 302 302 302 302 302
310 314 309 307 310 310 310 308 311 311 310 309 307 313 313 304 302 303 303 303 303 303 303 303 303 303 303 303 302 300 299 300 300 299 300 300 301 302 302 302 302 302 302 302
306 306 304 304 305 307 308 309 308 307 305 307 308 307 306 302 301 301 302 302 303 303 303 302 302 302 301 300 299 298 298 298 299 299 299 300 300 301 300 301 301 301 301 301
303 304 303 304 305 304 306 305 307 306 309 308 307 305 309 303 303 302 302 302 302 302 302 302 302 301 300 299 298 297 298 297 297 296 297 299 300 300 299 301 301 299 300 301
301 301 302 302 305 306 305 306 304 305 306 309 308 309 303 305 304 303 302 302 302 302 302 302 301 300 299 298 297 297 297 297 297 297 296 298 298 299 299 300 299 300 300 300
301 299 302 302 300 301 302 303 304 309 306 302 303 308 303 302 301 301 302 302 302 302 302 301 300 300 299 297 297 297 297 296 296 296 297 298 298 299 299 298 299 300 299 299
301 300 305 305 304 303 304 303 301 301 302 305 307 309 302 300 300 300 301 302 302 302 301 300 299 299 298 297 297 296 296 296 296 296 297 297 297 297 297 298 299 297 297 299
301 298 303 311 306 303 305 303 302 303 306 305 306 308 307 303 303 302 302 302 301 301 300 300 299 298 297 296 295 296 296 295 295 295 295 295 296 296 296 297 297 297 297 298
300 302 299 300 299 299 300 301 302 303 304 306 307 303 304 303 302 301 301 301 300 300 300 299 298 296 295 295 295 295 294 294 294 294 293 293 294 294 295 295 296 297 297 298
299 302 301 301 301 301 302 303 302 302 303 301 303 304 304 303 302 301 301 300 300 300 299 298 296 295 295 294 294 294 294 294 293 293 293 293 293 293 293 294 294 295 296 297
301 301 300 303 298 300 302 301 302 302 301 303 303 305 301 300 300 300 300 300 299 299 298 295 295 294 294 294 294 294 294 293 294 294 294 294 294 293 293 294 294 294 295 297
299 300 301 302 300 305 306 301 301 302 302 302 302 303 302 301 300 300 300 299 299 298 295 294 293 294 294 294 293 293 294 294 295 295 294 294 294 294 294 294 294 294 295 295
298 300 302 302 300 302 304 300 301 301 304 302 302 302 301 300 300 300 300 299 298 295 294 293 293 293 293 293 293 294 294 295 295 294 295 295 295 294 295 294 293 294 294 295
297 297 300 299 300 304 304 300 300 300 304 301 301 301 299 300 302 302 299 298 296 294 293 293 293 292 293 293 293 295 295 295 294 294 295 295 296 294 295 293 295 293 294 294
299 300 302 301 300 301 300 300 300 303 308 300 300 300 300 301 301 300 298 296 294 293 293 293 292 293 293 293 294 294 294 294 294 295 295 295 295 295 295 295 293 294 294 294
301 300 300 300 301 303 300 300 303 304 300 300 300 300 300 300 299 298 296 294 293 293 292 293 292 293 293 294 294 294 294 294 294 294 295 295 295 295 295 293 293 293 293 293
301 302 302 301 301 301 301 302 303 302 301 301 300 300 300 299 298 296 294 293 293 292 292 292 292 292 293 293 293 293 293 294 295 295 294 295 296 295 294 293 293 294 293 293
297 298 300 299 300 300 301 302 302 302 301 301 300 300 299 298 297 295 294 293 292 291 291 292 292 292 292 293 293 293 293 294 294 295 295 295 295 295 295 293 293 294 294 293
299 298 299 298 300 301 303 303 304 302 301 300 300 300 299 298 296 294 293 292 291 291 292 291 292 292 292 293 293 293 293 294 294 295 295 295 296 296 295 295 295 295 294 294
299 301 301 306 305 303 303 304 302 301 301 300 300 300 298 297 295 293 293 292 291 291 290 291 292 292 292 293 293 294 293 293 294 294 295 295 296 297 296 296 295 295 295 295

GFSCGP_850_thetae_042.txt.gz
Theta_e
318 320 320 320 319 318 319 320 321 319 317 318 317 317 314 310 309 310 309 309 308 307 306 306 306 305 305 305 305 305 305 305 305 305 306 305 305 305 305 304 302 303 304 305
320 320 319 317 317 319 319 320 320 318 317 317 319 318 314 311 310 310 309 309 308 307 307 306 306 306 306 305 305 305 305 305 305 305 304 304 304 305 305 305 305 304 305 305
320 320 316 318 319 319 320 319 319 319 318 315 316 319 314 311 309 308 308 308 307 307 307 307 307 306 306 306 305 304 304 304 304 304 304 304 304 304 304 304 304 304 304 305
319 317 318 318 319 319 320 317 318 318 319 321 315 317 317 314 311 309 308 307 307 306 306 306 306 306 306 306 305 305 304 304 304 304 304 303 303 304 304 304 304 304 304 305
319 317 318 319 319 318 320 315 316 317 318 317 318 318 320 313 311 311 309 307 306 306 305 305 305 305 304 305 305 304 305 304 304 303 303 303 303 303 303 304 304 304 304 304
317 315 315 317 316 315 313 314 315 316 317 319 317 318 320 315 314 312 309 307 306 305 305 305 305 305 305 305 305 305 304 303 303 302 302 302 302 302 302 303 303 303 303 304
317 317 313 313 316 314 314 315 317 319 321 321 317 318 319 316 311 311 308 307 306 305 305 305 305 304 304 304 304 303 302 302 301 301 301 301 301 301 302 302 302 303 303 303
317 319 314 310 314 314 314 315 316 317 317 317 314 317 318 310 309 308 307 307 306 305 305 305 304 304 304 303 303 302 301 301 300 300 300 300 300 300 301 301 301 302 302 302
313 313 308 308 309 311 313 314 313 313 311 313 315 314 313 308 308 307 307 306 306 305 305 304 304 304 303 303 302 301 301 300 300 300 300 299 299 299 300 300 300 301 301 301
308 311 307 308 308 309 311 311 314 313 315 315 315 313 315 310 309 308 307 306 306 305 304 304 304 304 303 302 301 301 300 299 299 299 299 298 299 299 299 299 300 300 301 301
306 307 308 307 310 312 311 312 310 311 312 315 315 316 313 311 311 310 308 307 307 305 304 303 303 303 302 301 301 300 299 299 298 298 298 298 299 299 299 299 300 300 300 299
305 307 309 309 305 305 307 309 311 312 314 311 312 314 309 309 308 308 308 307 306 304 304 303 303 302 301 301 299 298 298 297 298 298 298 298 298 298 298 299 299 299 299 299
306 308 313 311 309 307 308 308 307 308 309 313 313 315 308 307 307 307 307 306 305 304 304 303 302 302 301 299 298 297 297 297 297 297 297 297 297 297 297 297 298 298 298 299
304 307 310 315 312 309 310 308 307 308 313 312 312 313 313 311 309 307 306 305 304 304 303 302 302 301 299 297 297 297 297 297 297 297 296 296 296 296 296 296 296 297 297 298
306 309 306 307 306 304 305 306 307 307 309 310 312 312 311 310 310 308 306 304 303 303 302 302 301 299 297 297 296 296 297 297 296 296 296 296 296 296 296 295 296 296 296 296
305 309 306 307 305 305 306 307 307 307 307 308 308 308 309 308 306 305 304 304 303 302 302 301 299 297 296 296 296 296 296 296 296 296 296 296 296 296 295 295 295 295 295 295
307 307 307 310 304 304 308 309 308 308 307 307 308 311 308 307 306 305 304 303 303 302 300 299 297 296 296 296 296 296 296 296 295 295 296 296 296 296 296 296 295 295 295 296
306 306 306 309 306 314 310 307 305 306 307 307 307 307 308 307 305 304 303 302 302 301 299 297 296 295 295 295 295 295 295 295 295 295 296 295 295 295 295 296 296 295 295 295
303 306 307 309 309 310 311 306 306 306 308 308 308 307 307 305 303 304 302 301 300 299 297 296 295 295 295 295 295 294 294 294 294 294 296 295 295 295 296 296 296 295 295 294
302 303 306 305 309 314 311 304 303 303 309 307 306 306 306 304 306 307 301 300 299 297 296 295 294 294 294 295 294 294 294 294 295 295 294 294 294 295 295 295 296 295 294 294
305 305 308 309 309 309 307 303 302 308 313 306 304 304 304 305 304 303 301 300 297 295 295 294 294 294 294 294 294 294 294 294 294 294 294 295 295 295 295 296 295 295 294 294
310 310 309 307 308 310 304 303 306 310 306 304 303 303 302 302 302 301 299 298 296 295 294 294 294 294 293 293 293 293 293 293 294 294 294 294 295 296 296 295 295 294 294 294
308 309 312 309 311 307 303 305 306 304 303 304 303 303 302 302 301 299 298 296 295 294 294 293 294 293 293 294 293 293 294 293 293 294 294 295 295 296 296 296 295 295 294 295
304 304 305 306 307 306 306 305 304 304 303 303 302 302 301 301 299 298 297 295 294 294 293 293 293 293 293 294 293 293 293 293 293 293 294 295 295 296 296 297 296 296 295 295
305 302 307 308 307 306 306 306 305 304 303 302 301 300 300 299 298 297 295 294 294 293 293 292 293 293 293 292 293 293 293 293 293 293 294 294 295 295 296 296 297 297 296 295
304 306 307 309 307 306 305 304 303 302 302 302 301 300 299 299 298 296 295 294 293 293 292 292 292 293 292 292 293 293 293 292 293 293 294 295 295 296 296 296 297 297 297 297

GFSCGP_850_thetae_048.txt.gz
Theta_e
321 322 322 323 323 322 321 320 321 321 322 321 322 321 321 318 316 316 316 315 313 312 311 309 309 308 308 308 308 308 307 307 306 306 306 305 304 305 304 303 304 304 305 305
321 320 322 321 321 321 322 322 322 323 321 320 320 320 321 318 316 316 316 315 314 313 311 309 309 309 309 309 309 308 307 307 306 306 306 305 305 305 304 303 304 305 305 305
321 323 321 320 322 321 322 323 323 321 322 321 321 322 322 320 317 315 316 315 314 312 311 310 310 309 309 309 309 308 308 307 306 306 305 305 304 303 303 303 303 303 303 304
322 321 321 321 321 322 323 321 321 321 322 323 321 321 322 319 316 315 315 314 314 312 312 311 310 310 309 308 308 308 307 307 307 306 305 304 303 302 302 303 302 303 303 303
322 321 321 322 322 321 322 320 320 321 321 319 319 319 322 319 317 314 314 314 313 312 311 311 310 309 308 307 307 307 307 307 306 305 304 303 302 302 302 302 302 302 302 302
321 319 319 320 320 319 318 319 320 320 319 319 318 320 322 319 318 316 314 313 313 312 311 310 309 308 308 307 307 307 307 305 304 304 303 303 302 302 302 302 301 301 301 302
321 320 317 316 318 319 318 320 322 323 324 324 321 321 319 317 315 316 315 314 313 312 310 309 308 308 308 307 307 306 306 305 304 303 303 302 301 301 301 301 301 301 301 301
320 322 319 317 318 317 321 319 319 320 320 319 319 319 318 314 315 314 315 314 313 311 309 309 308 308 308 307 307 306 305 304 304 303 302 301 300 300 300 300 300 300 300 300
317 318 314 314 314 314 318 316 316 315 315 316 317 319 315 313 312 313 313 312 311 310 309 309 308 308 307 307 307 306 305 304 303 302 300 300 299 299 300 300 300 300 300 300
313 313 313 311 311 313 313 314 316 315 318 319 318 318 316 313 312 312 311 311 311 310 309 309 308 308 307 306 306 305 304 303 302 300 300 299 299 299 299 299 299 299 299 299
311 312 312 310 312 315 313 313 313 313 314 315 315 316 314 314 313 311 311 311 311 310 310 309 308 307 307 306 305 304 304 302 300 299 299 299 299 299 299 299 299 298 298 298
309 311 312 313 310 310 311 313 314 315 317 317 315 316 311 310 311 311 311 310 310 310 310 309 308 307 306 305 304 304 302 300 299 299 298 298 298 299 299 298 298 299 299 299
310 312 313 312 312 310 309 311 311 311 312 315 313 313 310 311 311 311 310 310 309 309 308 308 307 306 305 305 304 302 300 299 298 298 298 298 298 298 298 298 298 298 297 297
308 312 313 315 313 313 312 313 312 311 312 312 313 314 313 312 311 309 309 308 308 307 307 307 306 305 305 304 302 300 299 298 298 298 298 298 298 297 297 297 296 296 295 296
309 311 312 312 312 311 311 311 310 309 310 310 311 311 311 310 308 309 309 309 308 307 307 306 305 304 303 302 300 298 298 297 297 297 297 297 296 296 296 295 295 295 296 295
310 312 311 310 312 310 310 310 310 310 310 310 310 310 310 311 310 309 309 309 308 307 306 305 304 303 302 299 298 298 297 297 297 297 297 296 296 295 294 294 295 295 295 295
311 311 312 314 311 312 312 313 313 311 312 311 310 311 311 309 309 309 309 308 307 306 305 304 303 301 299 298 297 297 297 297 297 296 296 294 294 294 294 295 295 295 295 295
311 310 310 313 311 316 314 311 311 312 310 310 310 310 310 309 309 308 308 308 307 305 304 303 301 299 298 297 296 296 297 296 295 295 294 294 294 294 295 294 294 294 295 294
307 309 312 314 314 314 312 309 309 308 309 310 309 309 309 309 308 308 307 305 304 303 303 301 300 298 297 296 296 296 296 295 295 294 294 294 295 294 294 294 294 294 295 295
307 307 309 312 313 313 313 307 306 307 309 310 309 309 309 308 305 306 307 305 304 303 302 300 298 297 296 296 296 295 295 295 294 294 293 294 293 293 294 294 294 294 295 295
308 308 308 310 313 313 312 307 306 310 311 308 308 308 307 306 307 306 306 305 304 303 301 299 297 296 296 296 295 295 295 295 294 293 293 293 293 294 294 294 295 294 295 296
312 313 312 311 313 312 308 306 308 309 309 308 307 307 306 306 306 306 305 304 303 301 300 298 296 296 295 295 295 295 295 294 293 293 293 293 293 294 294 294 295 296 296 296
311 310 312 313 313 311 309 308 309 307 306 306 306 306 306 305 305 304 304 304 302 300 298 297 296 295 295 294 294 294 293 293 293 293 293 293 294 294 294 295 296 296 296 296
310 310 309 309 310 309 308 307 305 305 305 305 305 305 305 304 304 303 303 302 301 299 297 296 295 295 294 293 293 293 292 293 293 292 293 293 294 294 294 296 297 297 297 298
309 308 308 307 307 307 306 305 305 305 305 305 305 304 304 303 303 303 302 301 300 298 296 295 294 294 293 292 292 292 293 293 292 293 293 294 294 294 295 296 298 298 299 300
308 307 307 307 305 304 304 304 304 304 304 304 303 303 303 303 303 302 301 300 298 296 295 294 294 293 292 292 292 293 292 292 292 292 293 294 294 295 295 297 300 301 299 300

GFSCGP_850_thetae_051.txt.gz
Theta_e
320 317 317 316 318 318 318 318 317 318 320 318 317 317 316 315 315 315 315 313 312 311 310 309 309 308 308 308 308 308 308 308 306 305 305 305 304 303 303 302 301 301 302 303
316 316 318 320 319 319 319 319 318 319 319 318 317 317 316 315 315 315 316 314 312 312 310 310 310 309 308 308 308 309 308 308 306 305 306 306 305 303 303 302 302 302 302 302
316 321 320 320 320 320 320 320 319 319 319 318 318 318 318 316 314 315 315 315 313 312 310 310 310 309 309 309 309 309 309 308 306 306 306 305 304 303 302 302 302 301 301 302
319 319 320 319 320 319 319 319 319 320 318 318 318 316 314 315 313 313 315 315 314 312 311 311 310 309 309 309 308 308 307 307 307 306 305 304 303 303 302 302 301 301 301 301
317 319 319 320 320 319 320 318 318 319 318 316 315 316 313 313 314 311 312 315 314 313 311 311 310 310 309 308 308 307 307 307 306 305 304 304 303 303 302 301 301 301 301 300
318 318 318 318 318 317 317 317 316 317 315 315 314 315 314 316 315 312 312 314 314 313 312 311 311 310 308 308 308 307 307 306 305 305 304 304 303 302 301 301 300 300 300 300
318 318 315 316 317 317 317 315 316 318 318 317 316 315 314 316 313 313 311 314 314 313 312 311 310 308 308 308 307 307 307 306 305 305 304 303 302 301 300 300 299 299 299 299
317 319 315 315 316 316 317 315 315 317 318 314 316 315 314 311 312 313 315 315 313 313 312 310 309 308 308 308 307 307 306 306 305 304 303 302 301 300 299 299 299 299 299 299
311 315 312 311 312 313 315 312 312 312 311 310 311 314 312 310 310 311 311 312 312 311 310 309 309 308 308 308 307 307 306 305 304 303 302 301 300 299 299 298 298 298 298 298
310 309 312 310 311 312 312 312 312 310 313 315 312 314 313 311 310 309 308 310 310 310 310 309 309 309 308 307 307 306 305 304 304 303 302 300 299 298 298 298 298 298 298 298
309 307 310 309 310 311 310 309 310 309 309 310 310 310 310 311 309 308 308 310 311 310 310 310 309 309 308 307 306 305 304 304 303 303 301 299 298 298 298 298 298 298 298 298
307 306 308 309 308 308 310 311 309 310 311 309 308 310 308 306 308 309 309 309 310 310 310 310 309 308 307 306 305 305 304 304 303 301 299 298 297 297 297 298 297 297 297 297
308 306 307 310 311 310 308 309 310 307 306 308 307 308 307 308 309 310 310 309 309 309 308 307 308 307 306 305 305 305 304 303 301 299 298 297 297 297 297 296 296 296 295 294
307 307 308 310 310 310 309 311 310 307 305 307 308 309 309 307 307 307 308 308 308 308 308 307 306 306 305 305 304 303 302 299 298 297 297 297 297 296 296 296 295 294 294 295
306 308 309 309 309 310 309 309 308 307 307 308 309 308 307 307 307 308 308 308 308 308 307 306 306 305 304 304 303 301 299 297 296 296 296 296 296 295 294 294 294 294 294 294
306 307 308 308 309 309 309 308 308 308 308 307 307 307 307 309 309 308 308 308 308 308 306 305 304 304 303 302 300 298 297 296 296 296 296 294 294 294 294 294 294 294 294 294
307 306 306 308 309 309 309 310 311 310 309 309 309 307 308 306 307 307 308 308 307 306 304 304 304 303 302 300 298 296 296 296 296 295 294 294 294 293 294 294 293 294 294 294
307 306 305 304 307 309 309 308 308 310 308 307 307 307 307 307 307 307 307 306 306 306 305 304 303 302 301 299 296 296 296 296 295 295 294 294 293 293 294 293 294 294 294 294
304 304 305 304 305 308 310 306 306 307 307 307 307 307 307 307 307 306 307 306 306 304 304 303 302 301 299 296 296 295 295 295 295 295 294 293 293 293 293 294 294 294 294 294
304 302 303 305 303 305 309 306 306 306 304 308 307 307 307 306 304 302 306 305 305 304 304 303 302 300 297 296 295 294 294 295 295 294 292 293 293 293 293 294 294 294 294 295
303 302 302 301 301 306 308 306 306 306 305 307 307 307 306 304 305 305 305 305 305 304 303 302 301 298 296 295 295 294 294 294 293 292 293 293 293 293 294 294 294 295 295 296
306 302 304 303 304 308 307 306 308 305 306 305 305 305 305 305 305 305 304 304 304 303 302 301 299 297 295 295 294 293 293 292 292 292 292 293 293 293 294 294 294 296 297 298
307 307 306 306 306 308 308 306 305 305 305 305 305 305 305 305 304 304 303 303 303 301 301 300 298 295 295 294 293 292 292 292 292 292 292 293 293 294 294 294 296 297 298 299
307 307 304 305 306 306 305 305 304 304 304 304 304 304 304 303 303 303 303 303 302 301 300 298 296 294 294 293 292 291 292 292 292 292 293 293 293 294 294 296 297 298 299 299
306 306 304 303 305 305 305 304 304 304 304 303 303 302 303 303 302 302 303 302 301 300 299 297 294 294 293 292 291 291 291 292 292 292 293 293 294 294 295 297 298 299 299 299
308 305 303 303 303 303 304 303 303 304 303 303 302 302 301 302 302 302 302 301 300 299 297 295 294 293 292 292 291 291 291 291 292 293 293 293 294 295 296 297 299 298 299 299

GFSCGP_850_thetae_054.txt.gz
Theta_e
319 316 314 314 316 316 317 317 316 315 318 318 317 316 315 316 314 313 314 312 311 310 310 310 310 309 308 308 308 308 308 308 308 306 305 305 304 304 303 303 302 301 301 301
315 316 315 318 318 318 318 318 317 318 319 318 317 317 316 314 314 314 314 312 312 310 309 309 310 309 309 308 308 308 308 308 308 307 305 305 304 304 303 303 302 301 301 301
315 319 319 319 319 320 319 319 318 318 317 316 317 316 316 315 314 314 313 314 313 311 310 310 310 310 309 309 308 309 308 308 308 307 306 305 305 304 303 303 302 301 300 300
317 318 319 318 319 318 319 318 319 319 317 316 315 315 314 313 313 311 314 314 313 311 311 311 310 310 309 309 309 309 308 307 307 307 306 305 305 304 303 302 302 300 300 299
317 318 318 319 319 318 318 318 317 317 316 315 314 314 312 313 314 311 312 314 314 312 311 310 311 310 309 309 309 308 307 307 307 307 306 305 304 304 303 302 301 300 299 299
317 318 317 318 317 316 317 316 314 313 312 314 313 312 311 315 315 312 311 314 314 313 311 310 310 309 309 309 308 308 308 307 307 306 305 304 304 303 302 301 300 299 299 298
317 317 314 316 316 315 314 311 312 315 317 317 314 313 310 311 310 312 311 314 314 314 311 310 310 310 309 308 308 308 308 307 307 306 305 304 303 302 301 300 299 298 298 298
316 318 315 314 315 316 315 313 313 317 318 316 311 315 313 310 310 310 313 315 314 314 312 312 311 311 309 309 308 308 307 307 306 305 304 303 303 302 301 299 298 298 297 297
311 315 312 311 311 313 314 313 311 311 309 309 309 313 310 310 308 309 311 313 313 313 313 312 311 310 309 308 308 307 307 306 305 304 304 303 302 301 299 298 298 297 297 297
308 309 311 310 310 311 312 310 311 308 310 314 310 311 311 310 309 308 308 311 312 312 312 311 310 309 309 308 308 307 306 305 304 304 303 302 301 299 298 297 296 297 297 297
307 306 308 308 309 310 309 308 309 307 308 310 309 308 308 309 308 308 308 310 311 311 310 309 309 308 308 307 307 306 305 304 304 303 302 300 299 297 296 296 296 296 296 296
306 305 308 308 307 308 309 308 306 308 310 306 305 310 307 306 307 309 309 308 309 309 309 309 309 309 308 307 306 305 304 304 303 302 301 298 296 296 296 296 296 295 295 294
307 304 305 309 310 310 307 307 307 306 304 306 306 307 305 306 308 308 308 308 308 308 308 307 308 308 307 306 305 304 303 302 301 300 297 296 296 296 295 294 294 294 293 294
307 305 306 309 311 308 309 310 308 305 303 305 306 307 308 306 306 307 307 307 307 308 308 308 307 306 305 304 303 303 302 301 299 296 296 296 295 294 294 294 293 294 294 294
305 305 308 308 308 308 308 308 308 306 306 307 307 307 306 304 306 306 307 307 307 308 307 306 306 305 304 304 303 303 301 299 296 295 295 295 294 294 294 293 293 293 294 294
304 305 307 308 309 308 309 308 308 307 307 306 306 306 306 306 307 307 307 307 306 306 306 305 304 304 304 303 303 301 298 296 295 295 295 294 294 294 293 292 293 293 294 294
306 305 304 308 306 308 306 310 309 309 307 307 307 306 305 305 306 307 307 306 306 305 305 305 305 304 303 302 301 298 296 295 295 294 294 294 294 292 293 293 293 293 294 294
305 304 304 303 305 307 305 307 306 307 307 306 306 306 306 306 306 306 306 306 306 305 305 305 304 303 302 301 299 296 295 294 294 294 294 292 292 292 292 293 293 294 294 294
303 303 303 303 303 305 308 306 307 307 306 307 306 306 306 306 305 306 306 306 305 305 304 303 303 302 301 299 296 295 294 294 293 293 291 292 292 292 293 293 293 294 294 295
302 300 302 303 301 304 304 306 306 304 303 307 306 306 305 305 303 302 305 305 304 304 304 303 302 301 299 297 295 294 294 293 292 292 292 292 292 293 293 293 294 294 295 295
303 301 302 301 300 303 304 307 305 306 303 306 305 305 305 303 304 305 304 304 303 304 303 302 301 300 298 296 294 294 293 292 292 292 291 292 293 293 294 294 294 295 296 297
305 301 301 300 301 306 307 305 306 304 305 304 304 304 304 304 304 303 303 303 303 303 302 301 300 299 297 294 294 293 292 291 291 291 292 292 293 293 293 294 295 297 298 298
306 305 305 304 304 306 306 305 304 304 304 303 303 303 302 302 302 302 302 302 302 302 301 300 299 298 295 294 293 292 291 291 291 291 292 293 293 293 294 295 296 298 298 299
307 305 303 304 305 305 305 304 304 303 303 303 302 302 302 302 301 302 301 302 302 301 300 299 298 296 294 293 292 291 291 290 290 291 292 292 293 294 294 296 298 298 298 299
306 305 304 302 304 304 303 303 303 303 303 302 301 302 301 301 301 301 301 301 301 300 299 298 296 294 293 292 291 291 291 290 291 292 292 293 293 294 294 296 298 298 298 298
306 304 304 304 305 303 303 303 303 302 301 301 302 301 301 301 301 301 301 301 300 299 298 297 294 293 293 291 291 291 290 289 291 292 292 293 293 294 295 296 297 297 297 297

GFSCGP_850_thetae_057.txt.gz
Theta_e
318 315 312 314 314 314 315 315 316 315 316 317 316 316 314 315 313 313 314 314 313 312 310 310 309 309 309 309 308 308 309 308 308 308 307 305 305 305 304 304 303 303 301 300
315 315 314 315 317 317 317 316 316 315 318 317 316 316 314 314 313 313 314 313 313 311 310 309 309 309 309 309 308 308 308 308 308 308 307 307 306 305 305 304 303 303 302 300
315 317 317 318 318 318 318 317 317 317 316 315 315 315 315 314 313 314 313 314 313 312 310 310 309 309 309 309 308 308 308 309 308 307 307 306 306 305 305 304 304 303 302 301
316 317 318 317 318 316 317 317 318 318 316 316 314 316 313 312 311 311 311 312 313 312 310 310 310 310 310 309 309 308 309 308 307 307 307 306 306 306 305 304 303 303 302 301
316 317 318 318 318 317 317 317 316 316 314 314 313 313 311 312 314 312 310 311 313 313 312 311 311 311 310 309 309 309 309 308 307 307 307 306 306 305 304 303 303 302 302 300
316 317 316 317 316 316 315 314 311 312 311 313 312 311 312 313 313 310 311 312 313 313 313 311 311 310 310 309 309 309 308 307 307 307 306 306 305 304 303 303 302 302 301 299
315 316 314 315 316 314 312 310 312 312 315 313 312 311 311 309 309 309 309 313 314 314 313 312 311 310 310 309 309 309 307 307 307 307 306 305 304 303 302 302 302 300 298 297
314 316 314 312 314 314 314 310 311 314 317 317 311 314 313 310 308 309 311 313 314 314 313 313 312 310 310 310 309 308 307 307 307 306 305 304 303 303 302 302 300 298 297 296
311 313 311 310 311 312 313 313 310 309 307 308 308 308 311 307 306 308 310 312 314 313 313 313 311 310 310 308 307 307 307 306 306 305 304 303 303 302 301 299 297 296 296 296
308 310 310 310 310 309 311 309 310 307 310 312 309 308 311 307 308 306 308 312 313 313 312 311 310 309 307 307 307 307 306 305 305 304 303 303 302 300 298 296 296 296 295 295
306 306 308 308 308 308 309 309 306 306 307 310 309 307 306 308 308 309 309 308 309 309 309 309 308 308 308 308 307 307 305 304 303 303 302 301 299 297 296 296 295 295 294 294
305 303 306 307 306 307 308 308 305 306 307 304 303 309 307 304 305 306 306 307 307 308 308 307 308 308 308 308 306 305 304 303 303 302 301 299 297 296 296 295 294 294 294 294
305 303 304 307 308 308 306 306 305 304 303 305 306 307 304 305 306 306 306 306 307 307 308 308 308 308 307 306 305 304 303 303 303 302 300 297 296 295 295 294 293 293 293 293
305 303 305 307 310 308 309 308 305 304 302 303 304 305 307 305 304 304 306 307 307 307 307 307 307 306 305 304 304 303 303 303 302 300 296 295 295 294 294 293 292 292 293 293
303 303 306 306 306 307 308 308 307 306 305 306 306 305 305 304 303 305 306 307 307 306 306 306 305 305 305 304 303 303 303 302 299 296 295 294 294 294 293 292 292 293 293 293
302 304 307 307 308 307 309 307 307 306 306 304 304 305 304 305 306 306 306 306 306 306 305 305 305 304 304 303 302 302 301 299 296 295 294 294 293 292 292 293 293 293 293 293
305 304 304 308 304 306 307 308 309 308 306 306 306 305 305 305 305 306 306 305 306 305 305 304 304 304 303 302 302 301 299 296 295 294 293 292 292 292 292 293 293 293 293 294
304 304 303 303 304 306 304 306 306 307 307 305 305 306 306 306 306 306 306 305 305 304 304 304 304 303 302 302 301 299 296 295 294 293 292 292 291 292 292 293 293 294 294 294
302 302 302 302 302 303 307 305 305 307 307 305 306 305 306 305 304 305 304 304 304 304 303 303 303 302 302 301 300 297 295 294 293 292 291 291 291 292 293 293 293 294 294 295
301 299 302 302 300 302 303 305 305 304 303 306 306 305 304 304 300 299 304 304 303 303 303 303 302 301 300 299 298 295 294 293 292 291 290 290 291 292 293 293 294 294 295 296
302 299 301 300 299 303 303 306 305 306 303 305 304 304 304 302 303 303 302 302 302 302 302 303 301 300 300 298 296 294 293 292 291 291 290 290 292 293 293 294 294 295 297 297
304 300 300 299 300 304 305 304 306 303 304 304 303 303 302 302 302 301 301 301 301 302 302 301 300 299 298 296 294 293 292 291 291 290 290 291 293 293 293 294 295 297 297 297
305 304 302 302 303 304 305 304 304 304 303 303 302 302 302 301 301 301 301 301 301 302 301 300 299 298 296 294 293 292 291 291 291 290 290 292 292 293 294 294 295 296 297 296
305 304 303 303 304 304 303 303 303 303 303 302 301 301 301 301 301 301 300 301 301 301 300 299 298 297 295 294 293 291 291 291 290 290 291 291 293 293 295 295 295 296 296 297
305 303 302 302 302 302 303 303 303 302 300 300 301 301 300 300 300 300 300 300 300 300 299 298 297 295 294 293 292 291 291 291 290 291 292 292 292 293 294 294 295 295 295 296
304 303 302 303 304 303 303 303 303 301 300 299 299 299 299 300 300 299 300 300 299 299 298 297 295 294 293 293 291 291 291 290 290 291 292 292 292 293 293 293 294 295 295 295

GFSCGP_850_thetae_060.txt.gz
Theta_e
316 312 316 323 316 313 312 314 315 314 315 317 315 314 314 314 313 313 313 313 312 311 311 311 311 310 309 309 309 308 308 308 308 308 308 307 306 306 305 305 305 305 304 304
314 313 313 314 314 316 316 316 315 315 317 316 316 315 314 313 312 313 314 313 313 311 310 310 310 310 309 309 309 308 308 308 308 308 307 307 306 306 306 306 305 304 304 304
315 316 315 317 316 317 317 316 316 316 316 314 314 315 314 312 313 313 313 313 313 313 311 310 310 309 309 309 308 308 308 308 309 308 307 307 306 306 306 306 305 304 303 303
315 316 317 317 317 316 317 316 317 317 316 316 313 314 312 311 311 311 311 311 313 313 312 311 310 310 310 309 308 308 308 308 308 308 306 306 306 306 306 305 304 304 303 303
315 317 317 317 317 317 316 315 315 314 313 313 312 312 310 310 313 310 310 311 312 313 313 312 311 311 310 309 308 308 308 308 308 307 306 306 306 306 305 304 303 303 303 303
315 316 315 316 314 315 313 312 310 311 311 312 312 310 311 311 312 308 309 312 312 313 313 313 312 311 309 309 308 308 308 308 307 306 306 306 306 305 304 303 303 303 302 301
314 315 313 315 315 314 311 312 314 310 314 311 312 311 311 309 308 306 305 309 313 313 313 313 312 311 310 309 309 308 308 307 306 306 306 306 305 304 303 303 302 302 300 298
313 314 314 311 313 313 313 311 310 313 314 315 311 313 312 308 307 308 310 312 313 313 313 313 312 311 309 309 308 308 308 307 307 306 306 305 303 303 303 302 301 298 298 297
312 313 310 309 310 311 312 313 309 308 305 307 308 307 310 305 305 307 309 312 311 312 312 312 311 310 309 308 308 307 307 307 306 306 304 303 303 303 302 301 299 297 296 296
307 310 308 309 309 308 311 308 310 306 310 309 308 308 309 307 307 305 304 306 308 309 309 309 310 309 309 308 307 307 307 306 305 303 303 303 303 302 300 298 297 296 295 294
305 306 307 307 308 308 308 308 305 305 305 310 309 306 303 307 306 303 303 306 307 307 307 307 307 307 307 308 307 307 306 304 303 303 303 303 302 300 298 296 295 295 294 294
304 302 305 307 305 306 307 308 305 307 306 303 302 307 306 303 303 304 304 306 306 307 307 307 307 307 307 306 306 305 304 303 303 303 303 301 300 298 296 295 294 294 293 292
304 302 303 305 307 307 306 306 304 302 303 305 306 307 303 303 303 303 304 306 307 307 307 306 306 306 306 306 305 304 303 303 303 303 302 301 297 295 295 294 294 293 293 293
305 301 303 306 309 307 308 306 305 303 301 303 304 305 306 303 302 304 306 306 306 306 306 306 305 305 305 305 304 304 303 302 303 302 300 297 295 294 294 293 292 292 293 294
301 303 305 306 305 307 307 307 305 304 304 306 306 304 305 303 303 305 305 306 306 306 305 305 304 304 304 304 303 302 302 302 302 299 296 295 294 293 293 292 292 293 294 294
301 303 306 307 307 306 308 307 305 305 305 303 303 303 304 304 305 305 305 306 306 305 305 304 304 304 303 303 302 302 302 301 299 296 294 294 293 292 292 291 292 294 295 294
303 304 304 309 303 305 307 306 306 307 304 305 306 304 304 305 305 306 306 305 305 304 304 304 303 303 303 303 301 301 300 299 296 294 294 293 292 291 291 291 293 294 295 295
303 303 302 303 303 306 305 304 305 306 306 305 305 305 305 305 306 305 305 304 304 304 303 303 303 303 303 301 300 300 299 297 294 293 293 292 291 290 291 292 294 295 294 295
301 301 302 302 301 302 305 305 306 307 307 304 304 305 305 304 303 304 304 303 303 302 302 302 302 302 301 300 300 299 297 294 293 293 292 291 290 290 291 293 293 294 294 295
300 298 301 301 299 301 301 304 305 304 304 305 305 304 303 303 299 298 302 302 301 301 301 301 302 301 300 299 299 297 294 293 293 292 291 291 290 291 293 293 293 294 294 296
301 298 301 301 298 302 301 304 304 306 303 305 304 303 303 301 302 302 301 301 301 301 301 301 301 300 299 299 297 295 294 293 292 291 291 290 291 292 292 293 293 293 295 295
303 300 299 299 300 303 303 304 305 303 304 304 303 302 302 301 301 301 300 300 300 300 301 301 300 299 299 297 295 294 293 292 291 291 291 290 292 291 293 293 293 294 294 294
304 303 302 300 302 302 305 303 303 304 303 302 302 301 301 300 300 300 300 299 300 300 301 300 300 299 298 295 294 293 292 291 291 291 290 290 292 292 293 293 294 294 294 294
303 302 302 302 303 303 304 303 303 303 303 301 300 300 300 300 299 299 299 299 300 300 300 299 299 297 296 294 294 293 291 291 291 290 290 291 292 292 293 293 293 293 294 295
303 302 301 301 301 302 302 303 303 302 300 300 299 299 299 299 299 299 299 299 299 299 299 298 297 296 294 294 293 292 291 291 290 289 290 291 292 292 292 293 293 293 294 295
303 302 302 302 304 303 303 303 303 301 299 299 299 299 299 299 299 299 299 299 299 299 299 298 297 295 294 294 293 291 291 291 289 289 290 291 292 291 292 292 293 293 294 294

GFSCGP_850_thetae_063.txt.gz
Theta_e
315 318 320 319 319 316 316 316 316 315 315 318 317 317 318 314 313 313 313 313 313 313 313 311 310 309 309 309 309 308 308 308 308 308 307 307 306 306 306 306 306 305 305 305
317 317 317 319 318 319 317 316 317 315 316 317 316 318 317 314 313 313 313 313 313 312 311 311 309 309 309 309 309 308 308 308 308 308 308 307 307 306 306 306 305 305 305 304
315 317 314 317 316 317 316 316 316 317 316 314 315 318 316 313 312 312 312 312 313 313 311 311 310 310 309 309 309 308 307 307 308 308 308 307 307 307 306 306 305 305 304 304
315 316 316 316 317 316 317 316 317 317 317 318 314 318 315 311 314 311 310 311 311 312 312 311 311 310 310 309 308 308 307 307 307 308 308 307 307 306 306 306 305 304 304 303
315 316 316 317 316 316 316 315 315 314 315 315 314 316 315 312 315 312 309 310 311 311 313 312 312 311 310 309 308 308 307 307 307 308 308 307 306 306 306 305 304 303 303 303
315 314 314 315 313 314 313 312 312 313 313 316 313 313 314 313 311 310 308 309 311 312 312 312 311 310 309 308 308 308 308 307 307 307 307 306 306 306 305 303 303 303 303 302
314 314 312 314 315 313 312 315 318 315 316 315 312 313 314 311 308 306 307 308 311 312 312 312 311 310 309 308 308 308 308 307 307 307 307 306 306 304 303 302 302 302 302 301
313 314 313 310 313 315 313 315 317 315 315 316 311 315 314 308 306 307 308 309 311 311 311 311 311 311 310 309 308 308 307 307 307 306 306 305 304 302 302 302 302 301 300 298
313 313 309 308 309 311 313 315 310 311 306 310 311 309 310 307 307 305 305 307 308 309 310 310 310 309 308 308 308 308 307 307 306 306 305 303 302 302 302 302 301 299 297 296
308 311 307 308 309 308 311 309 313 310 314 311 310 310 314 309 308 305 305 304 306 307 307 308 308 308 308 307 307 307 306 306 305 304 303 302 302 303 302 300 298 296 295 295
305 308 307 307 309 311 310 310 307 308 308 313 313 311 306 307 305 305 303 304 306 307 307 307 307 307 307 307 307 307 306 305 303 303 303 303 303 302 300 298 296 295 295 294
303 305 307 307 304 305 307 308 308 313 310 305 308 312 306 304 303 303 303 305 306 306 306 306 306 305 305 305 305 305 304 303 302 302 302 303 302 301 298 296 295 294 294 293
304 304 306 307 307 307 306 305 304 304 306 308 312 312 303 303 303 303 304 306 306 306 306 306 305 305 304 304 304 304 303 302 302 302 302 302 301 298 295 294 294 293 292 292
305 302 305 310 309 307 308 305 305 306 309 308 309 308 306 305 304 304 305 305 306 306 306 305 304 304 303 303 303 303 302 301 301 302 302 300 297 295 294 293 293 292 291 292
302 304 304 305 305 306 307 307 304 306 305 309 308 305 306 304 304 304 305 305 306 306 305 305 304 303 303 303 303 302 301 301 301 301 300 297 295 294 293 292 291 291 292 294
301 306 305 307 306 306 308 307 306 305 305 304 304 306 303 304 304 305 305 305 305 305 304 304 303 303 303 303 303 302 300 301 301 300 297 294 293 292 292 291 291 291 293 295
304 305 307 311 304 305 310 307 307 307 305 306 308 307 304 304 304 305 305 305 304 304 303 302 302 302 302 302 302 300 300 300 299 297 294 293 292 292 291 291 292 293 294 294
304 304 304 309 305 310 307 304 305 306 306 304 304 304 304 305 305 304 304 304 303 302 301 301 301 301 302 301 300 300 299 299 296 294 293 292 291 291 291 291 293 293 293 294
301 303 304 308 306 304 304 304 306 307 307 305 305 304 305 304 303 303 304 303 301 301 300 301 300 301 301 300 299 299 299 296 294 293 292 291 291 291 291 292 293 293 293 294
300 300 305 303 304 305 302 303 304 304 308 304 304 304 303 302 304 303 302 301 300 300 300 300 301 301 300 299 299 298 296 294 293 292 291 291 291 291 291 292 293 293 294 294
302 301 304 305 305 305 302 303 304 307 307 304 304 303 303 303 302 301 301 300 299 299 300 300 300 300 299 299 298 296 294 294 293 292 291 291 290 290 292 292 293 293 293 294
305 304 303 302 304 306 303 303 307 305 304 304 303 303 302 301 300 300 299 299 299 299 299 300 300 299 299 298 296 295 294 293 292 291 291 291 290 291 292 292 293 293 293 293
306 303 305 304 305 301 304 304 304 304 304 303 303 302 300 299 299 299 299 299 299 299 299 299 299 299 298 296 295 294 294 292 291 291 291 290 290 290 292 292 292 292 293 293
302 301 304 304 302 301 304 304 303 303 303 302 300 300 299 299 298 298 298 298 298 299 299 299 299 298 297 295 294 294 293 292 291 291 290 289 290 291 291 292 292 293 293 294
302 302 301 302 301 302 303 303 303 303 301 300 299 299 298 298 298 299 299 299 299 298 299 299 298 298 297 295 294 294 292 291 291 290 289 289 291 291 291 292 292 293 293 294
302 302 304 305 303 304 304 304 303 302 300 299 299 299 299 299 299 299 299 299 299 299 298 298 298 297 297 294 294 293 292 291 291 289 289 289 291 290 291 292 292 293 293 294

GFSCGP_850_thetae_069.txt.gz
Theta_e
325 332 334 335 333 332 334 335 335 333 320 321 325 327 326 323 323 322 322 322 322 322 321 320 317 316 313 312 312 311 310 309 309 309 309 309 309 309 308 307 306 306 306 305
326 331 333 334 334 332 331 332 334 329 320 321 329 328 324 323 322 321 321 321 321 320 320 318 316 314 313 312 312 311 310 309 309 310 310 310 310 310 309 309 306 306 306 305
330 330 328 334 327 327 329 331 330 327 324 323 321 322 322 321 320 319 319 319 319 321 319 318 315 314 313 312 311 311 310 310 309 310 310 310 309 308 307 307 307 307 306 305
331 323 325 327 332 329 333 327 325 324 321 322 321 322 322 321 321 319 318 318 319 319 319 317 315 314 313 312 311 311 310 310 310 310 309 309 310 310 311 310 309 308 306 305
324 321 324 327 326 327 329 322 322 322 322 322 321 321 320 320 321 319 318 317 317 318 319 317 315 314 313 312 312 311 310 310 309 309 309 309 310 311 310 309 308 306 305 305
322 321 322 323 321 321 321 322 322 322 321 321 320 322 320 321 318 317 317 317 316 316 317 317 315 314 313 312 312 311 310 309 309 309 309 309 309 310 310 309 307 306 305 305
321 321 319 320 321 320 321 322 323 325 325 321 320 320 321 317 316 316 317 316 315 315 315 315 313 312 311 311 311 310 309 309 309 309 309 309 309 309 308 306 305 305 304 304
323 322 320 318 321 322 321 322 321 320 321 322 320 320 321 315 315 315 316 315 315 314 314 314 314 313 312 311 311 310 310 309 309 309 309 308 306 305 305 304 304 303 303 303
324 320 316 316 318 319 321 319 320 320 320 320 319 319 316 315 315 315 315 314 313 313 312 311 311 310 310 310 310 309 309 309 309 308 306 305 304 304 303 303 303 302 302 301
319 319 317 315 316 317 319 318 320 320 320 321 320 318 319 315 314 314 314 313 312 311 311 310 309 309 308 307 307 306 306 306 306 305 304 304 303 303 302 302 302 301 300 300
317 318 316 316 318 321 318 319 318 319 319 319 319 320 317 317 315 314 313 312 311 310 310 309 308 308 307 307 306 305 305 304 304 303 303 303 303 302 302 301 301 300 299 298
315 319 318 317 312 313 316 319 319 319 319 317 317 317 314 315 313 313 312 311 310 310 309 308 308 308 307 307 306 305 304 304 303 303 302 302 302 302 301 301 300 299 297 297
315 317 316 315 314 312 314 315 316 316 317 317 318 318 313 312 312 311 311 311 310 310 309 309 309 308 307 306 306 305 304 303 303 302 302 301 301 301 300 299 298 297 296 295
311 315 317 318 319 316 314 314 314 315 317 318 318 317 313 313 312 311 311 311 310 309 309 309 308 307 306 305 305 304 304 303 302 301 301 301 301 300 299 297 296 296 295 295
313 315 312 312 312 313 314 314 313 314 315 316 317 315 315 314 313 312 311 310 310 309 309 307 306 305 304 304 303 303 303 302 301 300 300 300 299 298 296 296 295 295 294 294
311 315 313 314 312 313 313 314 313 313 314 314 314 314 315 314 312 311 310 310 309 309 308 306 304 303 303 303 303 302 302 301 300 300 300 299 297 296 295 295 294 294 294 295
312 314 316 319 315 315 318 317 317 316 314 314 314 314 312 311 311 310 310 309 309 307 305 304 303 303 302 302 301 301 301 300 300 299 298 297 296 295 295 294 294 294 294 294
314 316 317 321 317 318 314 312 313 314 313 313 313 312 312 311 310 310 309 309 307 305 303 302 302 302 302 301 301 300 300 300 299 298 297 296 295 295 294 294 294 294 294 295
312 315 318 321 318 316 311 310 311 312 312 313 312 312 311 310 310 310 307 305 304 303 302 301 301 301 301 301 300 299 299 299 298 297 297 295 294 294 294 293 293 293 294 293
311 313 316 315 325 318 312 310 309 310 312 311 311 312 311 310 311 309 306 303 302 302 301 301 301 301 300 300 300 299 299 298 297 297 295 294 294 294 293 293 293 294 293 293
313 313 315 315 317 314 311 309 309 311 314 311 311 311 310 310 309 306 303 302 301 301 301 301 301 300 300 300 299 298 298 297 297 296 295 294 294 293 293 293 294 293 293 293
315 316 314 314 316 317 309 309 311 313 310 310 310 310 309 308 304 302 302 301 301 301 300 300 300 300 300 300 299 298 298 297 296 295 294 294 294 293 293 293 293 293 292 293
313 312 314 314 315 311 309 311 309 309 310 309 309 307 307 304 302 301 301 301 301 301 300 300 300 300 300 300 299 298 298 296 295 295 294 294 293 292 293 293 292 292 293 293
311 310 311 312 312 310 309 309 308 307 308 308 307 306 303 303 301 301 301 301 301 300 300 300 300 300 300 299 299 298 297 296 295 295 294 294 293 292 292 292 292 292 293 293
311 309 310 311 311 310 309 308 309 307 306 306 304 303 302 301 301 301 301 301 301 301 301 300 300 300 300 299 299 298 297 295 295 294 294 293 292 292 291 291 292 293 292 293
310 311 311 311 311 311 310 309 308 307 305 304 303 301 301 301 301 301 301 301 301 301 301 300 300 300 300 299 298 298 296 295 294 294 294 293 292 291 291 292 292 292 292 293

GFSCGP_850_thetae_072.txt.gz
Theta_e
325 330 334 330 332 334 334 335 336 329 326 333 333 329 329 329 323 322 322 322 322 324 324 323 323 321 317 314 313 312 311 310 309 308 308 308 309 309 308 308 307 306 306 306
327 331 331 331 331 332 333 335 337 331 322 324 328 330 330 328 323 320 320 320 321 322 322 322 319 318 315 313 312 312 311 309 309 309 309 310 310 310 310 309 309 307 306 306
330 329 330 331 333 333 333 332 333 331 324 327 328 324 323 321 320 319 319 319 319 319 321 320 317 316 314 313 312 312 311 310 309 309 310 310 310 310 310 309 308 309 308 307
328 327 329 334 333 331 332 330 330 330 326 330 321 323 322 320 320 318 318 318 319 319 320 320 317 315 314 313 312 312 311 310 310 309 310 310 309 309 310 311 310 309 308 307
329 326 328 330 331 330 329 325 328 329 325 322 322 321 320 319 320 317 318 317 317 318 319 319 317 315 314 313 312 312 311 311 310 310 309 309 309 310 310 310 310 309 308 306
323 322 326 327 322 322 323 323 323 322 322 321 320 320 320 319 316 316 317 316 316 316 318 318 316 315 314 313 312 312 311 310 310 309 309 309 309 309 309 310 310 308 307 306
321 322 321 322 323 322 323 323 326 327 324 324 320 320 318 315 316 317 316 315 315 316 317 315 314 314 313 312 312 312 311 310 310 309 309 309 309 309 309 309 309 307 306 305
324 322 321 322 322 322 322 322 323 324 325 323 320 320 316 315 316 317 316 315 315 315 315 314 313 313 312 312 311 311 311 310 309 309 309 309 309 309 308 306 305 305 304 303
325 320 317 317 318 318 322 320 320 320 318 318 319 316 315 314 315 316 315 314 313 313 312 312 312 312 312 311 311 311 310 310 310 309 309 308 306 305 304 304 303 303 303 302
319 318 318 316 317 317 320 318 320 319 319 321 320 319 316 314 314 313 313 313 312 311 311 310 309 309 308 307 307 306 306 307 306 306 305 305 305 304 304 303 302 302 302 301
317 319 317 317 318 320 318 319 318 318 319 319 318 316 315 314 313 312 312 312 312 311 310 309 308 308 307 307 306 306 305 305 304 304 304 304 303 303 303 302 302 301 300 300
316 318 318 316 313 313 316 319 319 319 319 317 316 316 314 313 313 313 312 312 311 310 309 309 308 308 308 307 307 306 305 304 304 303 303 302 302 302 302 301 301 300 299 298
314 317 316 315 314 312 314 317 317 316 317 318 317 315 312 313 312 313 312 311 310 310 309 309 309 308 307 306 305 305 305 304 304 303 302 302 301 301 301 300 300 298 297 296
312 317 317 318 318 316 314 314 315 315 315 315 316 314 312 312 312 312 312 311 310 310 309 309 308 307 305 304 304 304 304 303 303 302 301 301 301 300 300 299 297 296 296 295
313 316 313 312 312 312 313 315 314 313 313 314 316 315 313 311 311 312 311 311 310 310 309 308 306 305 304 303 303 303 302 302 302 301 301 300 300 300 298 296 296 295 295 294
312 316 313 313 313 313 314 314 313 314 313 313 313 314 312 312 312 312 311 311 310 310 308 306 304 303 303 303 302 302 301 301 301 300 300 300 298 297 296 296 295 294 294 294
312 314 315 319 316 316 317 316 316 315 315 314 313 313 312 311 311 311 311 310 310 308 306 304 303 302 302 302 302 301 301 300 300 300 299 297 297 296 296 295 294 294 293 293
314 315 317 321 318 318 313 311 313 316 314 314 313 312 312 311 311 310 310 310 307 306 304 303 302 302 301 301 301 301 300 300 299 299 297 297 297 296 295 294 294 293 293 293
312 316 318 321 319 317 311 310 311 311 312 312 312 311 311 311 310 310 308 307 304 303 302 302 301 301 301 300 300 300 299 299 298 297 297 297 296 295 294 294 293 293 293 294
311 312 315 316 322 318 313 310 310 311 310 312 312 311 311 310 308 306 305 304 303 302 301 301 301 300 300 300 300 300 299 298 298 297 297 296 295 294 294 294 293 293 293 293
313 313 314 315 318 316 310 309 310 311 313 311 311 311 311 309 308 306 303 302 302 301 301 300 300 301 300 300 300 300 299 298 298 297 297 295 295 294 294 293 293 293 293 292
314 317 314 313 316 314 309 309 311 312 311 311 310 310 310 308 304 303 302 302 301 301 301 300 300 300 300 300 300 300 299 299 298 297 296 295 295 294 293 293 293 293 292 293
313 313 315 315 316 311 309 311 311 311 311 310 309 309 308 306 303 302 302 301 301 301 301 300 300 300 300 300 300 299 299 298 297 296 295 295 294 294 293 292 292 291 292 292
311 311 311 310 311 310 310 310 309 308 309 309 309 307 306 303 302 301 301 301 301 301 301 301 301 301 300 300 300 299 299 298 297 296 295 294 294 293 293 292 291 292 292 292
310 309 309 309 310 310 310 309 309 308 307 307 307 305 303 302 301 301 301 301 301 301 301 301 301 300 300 300 299 299 298 298 297 296 295 294 294 293 292 291 292 292 292 292
310 310 308 310 310 311 311 310 308 308 307 306 304 302 302 301 301 301 301 301 301 301 301 300 300 300 300 299 299 298 298 297 296 295 294 294 293 292 291 291 291 291 291 291

GFSCGP_850_thetae_075.txt.gz
Theta_e
323 325 328 331 330 330 329 329 331 331 334 334 335 333 329 326 327 324 322 321 321 326 327 328 330 328 323 319 318 315 312 311 311 309 308 308 307 307 308 307 307 307 307 307
323 326 326 328 330 331 332 332 333 327 323 323 328 327 326 327 327 322 321 320 320 319 325 325 327 325 321 317 314 313 312 311 310 309 308 309 309 310 310 309 309 309 308 307
324 325 327 330 329 332 332 331 330 331 326 322 325 324 323 323 320 319 319 319 319 319 322 324 323 321 318 314 313 312 312 310 309 309 309 310 310 310 310 309 310 309 309 310
324 325 327 329 330 331 332 329 329 323 323 326 323 323 317 318 316 315 317 318 318 319 319 321 320 318 316 314 312 312 311 310 310 309 309 310 310 310 310 309 311 311 310 310
328 327 327 330 331 328 330 326 326 324 323 319 320 317 314 315 315 316 315 316 316 317 318 319 318 317 315 313 312 312 311 311 310 310 310 309 309 309 309 310 310 310 310 309
325 323 324 322 322 325 322 321 321 318 317 318 317 318 315 315 314 314 314 316 316 317 318 318 317 315 314 313 312 312 311 311 310 310 310 309 309 309 308 309 310 310 309 308
322 320 320 323 321 322 320 320 321 322 318 317 315 317 315 313 313 312 312 315 315 315 316 316 315 314 314 313 313 312 312 311 310 310 309 309 309 309 309 309 309 309 309 306
320 320 320 321 323 319 321 318 320 324 322 321 318 316 314 313 314 315 315 315 315 314 314 314 313 313 312 312 312 311 311 311 310 310 309 309 309 309 309 309 308 306 306 305
325 318 317 317 318 319 320 319 318 316 316 314 316 313 312 313 313 312 313 313 314 313 313 313 313 313 312 311 311 311 311 310 310 309 309 309 309 308 306 304 304 303 303 303
318 316 316 316 316 316 318 317 315 314 316 318 316 313 313 312 312 310 310 311 312 311 311 311 311 311 311 311 310 308 308 307 307 306 306 305 305 305 304 304 303 302 302 301
315 317 316 315 316 317 314 316 316 314 315 315 314 313 310 310 311 310 309 311 311 310 310 309 308 308 307 307 307 306 306 305 305 304 304 303 303 303 302 302 302 302 301 301
313 314 314 314 311 312 314 316 314 313 315 312 311 312 308 309 310 310 310 311 310 309 308 308 308 307 307 306 306 305 305 305 304 304 303 303 302 302 302 301 301 301 300 300
312 313 312 312 311 310 313 315 315 313 311 314 312 312 309 308 309 310 310 310 310 309 309 308 308 307 306 306 305 304 304 304 304 303 303 302 302 301 301 300 300 300 297 296
311 312 312 315 315 312 311 312 314 311 310 310 310 311 310 309 308 309 311 311 310 309 309 309 308 307 306 305 304 303 303 302 302 302 302 301 300 300 300 300 298 296 296 295
310 312 311 310 311 311 312 313 312 312 310 311 312 311 309 308 307 310 311 310 310 309 309 308 307 306 305 303 303 302 302 301 301 301 301 300 300 300 299 297 296 296 295 294
309 312 312 311 311 312 312 312 312 311 311 311 312 312 310 309 310 309 311 310 310 309 306 305 305 304 303 302 302 301 300 300 301 301 300 300 299 297 297 297 296 295 294 293
308 310 312 316 315 314 314 313 313 312 313 311 312 310 309 308 308 309 310 310 308 307 305 305 303 302 302 301 301 300 300 300 300 299 299 299 297 297 297 296 295 295 293 293
310 312 313 313 314 316 313 310 311 312 313 311 310 310 310 309 309 310 310 309 306 305 304 303 302 301 301 300 300 300 300 300 299 298 298 297 297 297 296 295 295 294 293 292
308 312 314 314 314 313 310 309 310 311 311 310 310 309 310 310 309 305 306 307 306 304 303 302 301 300 299 300 300 300 300 299 299 298 297 297 297 297 295 295 294 294 292 292
309 308 312 311 311 310 310 308 310 307 303 310 310 308 308 309 305 303 304 304 303 302 301 301 300 300 300 300 300 300 300 299 299 298 298 298 297 296 295 294 294 292 292 293
309 308 309 310 308 310 310 308 310 302 303 310 310 310 309 306 307 305 303 302 302 301 300 300 299 300 300 300 299 299 299 299 299 298 298 298 296 295 294 294 293 292 292 292
309 307 307 308 310 310 308 308 305 305 310 310 310 310 310 307 305 303 302 301 301 301 300 300 300 300 300 300 300 299 299 299 299 298 298 297 296 295 294 293 293 292 291 292
309 310 310 308 308 309 309 309 310 310 310 310 309 309 309 306 304 302 301 301 301 300 300 300 300 300 300 300 300 300 299 299 299 298 298 297 295 294 294 293 292 291 291 292
309 309 307 306 307 308 310 310 310 310 310 309 309 308 307 305 302 301 301 301 300 300 301 301 301 300 300 300 300 300 299 298 298 298 297 296 294 294 293 293 291 291 292 292
306 306 305 304 305 309 310 309 309 308 308 308 308 307 305 303 301 301 301 300 300 300 301 301 300 300 300 300 299 299 298 298 298 297 296 295 294 294 293 292 290 291 291 292
307 306 304 304 307 308 309 310 309 308 307 307 306 304 302 302 301 301 300 300 300 300 300 300 300 300 299 298 299 299 299 298 297 297 295 294 294 293 292 290 291 291 291 290

GFSCGP_850_thetae_078.txt.gz
Theta_e
320 321 325 328 328 326 327 329 330 330 331 330 326 331 330 330 328 328 328 321 321 327 331 334 334 333 333 331 329 326 323 319 316 312 311 308 307 307 307 307 307 307 307 307
322 323 324 328 330 329 329 329 330 324 333 330 332 333 332 329 326 327 324 320 319 322 327 331 332 331 330 329 325 321 317 314 313 311 310 308 308 307 308 309 309 309 309 308
322 324 325 328 331 332 331 331 328 327 326 323 324 325 323 324 323 320 319 319 318 319 322 328 328 327 325 324 320 316 314 313 311 310 309 308 309 309 309 309 309 309 309 309
322 322 326 327 330 330 333 328 330 329 327 331 324 328 316 318 315 315 316 317 317 318 319 325 323 321 321 319 315 314 313 312 311 310 309 309 309 310 310 310 309 309 310 310
323 326 326 328 328 328 330 326 329 328 325 320 320 318 315 314 316 315 314 315 316 317 319 322 318 319 317 315 314 313 312 311 311 310 310 309 309 309 310 309 309 309 310 310
322 322 324 323 323 325 323 321 321 320 318 322 319 319 315 314 313 313 313 315 315 317 318 320 317 316 315 313 312 312 311 311 310 310 309 309 309 309 309 309 308 308 309 309
323 322 322 323 323 322 322 324 322 321 318 320 314 316 317 313 311 312 312 314 314 317 318 318 316 315 314 313 312 311 311 311 310 310 309 309 309 309 309 308 309 309 309 309
324 323 320 321 321 323 323 325 320 321 319 318 314 317 314 312 312 314 314 314 312 314 315 315 314 313 313 312 312 311 311 311 310 310 310 309 309 309 309 309 308 307 306 305
325 320 316 317 319 319 319 321 316 314 314 315 314 312 311 311 310 311 312 313 312 312 312 313 313 313 312 312 312 311 311 311 311 310 310 309 309 308 307 306 305 304 303 303
315 317 315 316 316 317 318 318 317 313 315 316 313 312 313 312 311 309 309 311 310 311 312 312 312 312 311 311 311 311 310 309 308 307 306 305 304 304 304 303 303 302 302 302
314 315 315 314 316 319 316 319 315 315 313 314 313 313 308 311 310 309 309 311 310 310 310 310 310 309 308 307 307 307 306 306 305 305 304 303 303 303 302 301 301 301 301 301
312 313 313 313 311 311 314 315 312 314 315 310 309 311 308 308 310 310 310 310 310 310 309 308 308 307 307 307 306 306 305 305 304 304 304 303 303 302 301 301 301 300 300 299
311 313 312 312 311 310 313 314 313 310 309 312 310 310 307 306 308 310 310 310 309 309 308 308 307 307 306 306 306 305 304 304 303 302 303 302 302 301 300 300 300 299 298 296
311 312 311 312 313 310 311 311 312 310 310 310 310 311 310 307 307 308 309 309 309 308 308 308 307 306 306 306 305 304 303 301 301 301 301 301 300 300 300 300 299 297 296 296
310 312 310 310 310 310 311 311 311 311 310 310 311 309 309 307 307 309 310 309 309 308 308 308 307 306 305 304 304 302 301 300 300 301 301 300 300 300 299 297 296 296 296 295
307 311 311 310 310 311 311 311 311 311 310 310 310 311 309 308 308 308 309 309 309 308 308 306 305 304 304 303 302 300 300 299 299 300 299 299 299 298 297 297 296 296 295 294
307 309 311 313 313 313 314 312 311 311 310 309 309 308 308 307 307 308 309 309 309 308 305 304 304 303 302 301 300 299 299 299 299 299 298 298 297 297 297 297 296 295 295 294
308 311 311 312 312 315 312 309 310 311 312 310 309 308 308 307 307 308 308 309 307 305 304 303 302 301 300 299 299 300 300 300 299 299 298 297 297 297 297 296 295 295 294 293
308 310 312 311 312 311 312 309 308 312 311 309 309 308 307 307 307 306 307 307 305 304 303 302 301 300 299 299 299 299 300 299 299 299 299 298 298 298 297 296 295 294 294 292
307 308 311 309 311 311 309 308 309 304 303 308 309 307 307 307 305 303 304 304 303 302 301 300 299 298 299 299 299 299 299 299 299 299 299 298 298 297 296 295 295 294 293 292
308 306 310 310 308 310 308 308 308 303 303 308 310 309 308 305 305 306 303 302 302 301 300 299 299 299 299 299 299 299 299 299 299 299 298 298 298 297 296 295 294 293 293 292
309 307 307 307 309 311 307 307 304 303 308 309 309 309 308 307 305 303 302 302 301 300 299 299 300 300 300 300 300 300 300 299 299 298 298 297 297 296 295 294 294 293 291 290
309 308 308 308 309 308 308 306 308 311 309 309 309 309 309 306 303 302 301 301 300 300 300 300 300 300 300 300 300 300 300 299 298 298 297 297 296 295 294 294 293 292 290 291
308 307 307 306 307 307 310 308 309 310 309 309 308 308 307 305 303 301 301 300 300 300 300 300 300 300 299 300 299 299 298 298 298 298 297 296 296 294 294 293 292 290 291 291
306 305 305 303 304 306 309 309 309 309 309 308 308 308 306 304 301 301 300 300 300 300 300 300 299 300 300 299 298 298 299 299 298 297 297 296 295 294 293 292 290 290 291 291
305 305 304 305 306 307 307 310 309 309 308 307 307 305 303 302 301 300 299 300 300 300 300 300 299 299 299 298 298 299 298 298 297 297 296 295 294 293 291 290 289 291 290 290

GFSCGP_850_thetae_081.txt.gz
Theta_e
316 319 322 323 324 325 326 327 328 327 326 327 328 329 327 329 330 330 325 323 322 326 329 330 331 334 339 339 338 335 333 327 320 315 313 310 309 307 306 306 306 307 307 307
319 318 319 322 328 327 326 329 328 324 331 327 327 327 328 328 328 328 329 326 324 320 325 330 335 338 339 337 334 332 327 321 316 313 311 310 308 307 307 307 308 308 309 309
319 321 322 328 331 330 328 328 326 329 327 323 328 327 326 324 326 323 321 322 320 320 324 333 337 337 335 334 331 327 321 317 313 311 311 309 308 308 308 309 309 309 309 309
321 321 324 326 328 330 331 328 327 327 327 331 324 331 319 317 318 315 315 317 318 318 320 328 333 335 334 331 325 320 316 313 312 311 310 309 309 309 309 309 310 309 309 309
321 325 324 327 327 327 329 327 328 327 325 325 321 323 320 314 315 314 313 315 316 317 318 320 328 333 332 325 318 315 313 312 311 311 310 310 309 309 309 309 310 309 309 309
321 322 323 323 322 325 323 321 321 320 321 324 322 324 322 314 314 313 313 314 315 316 317 318 322 328 323 317 314 313 312 311 311 310 309 309 309 309 309 309 309 308 308 308
322 322 321 322 322 321 322 323 323 325 327 326 316 320 322 312 311 312 311 313 314 316 316 318 319 319 316 314 312 312 311 311 310 309 309 309 309 309 309 309 308 308 308 309
324 324 320 321 322 322 322 324 321 324 319 319 315 317 315 310 310 312 312 312 313 314 315 316 314 314 313 312 312 311 311 310 310 309 309 309 309 309 309 308 308 308 307 306
324 322 319 319 319 321 322 323 321 315 312 315 314 312 311 310 310 310 310 311 311 312 313 314 312 312 312 312 311 311 310 310 310 310 309 309 309 308 307 307 306 304 304 303
318 321 316 317 317 317 317 321 319 316 316 316 312 313 313 312 310 309 308 308 310 311 312 312 312 312 312 311 311 311 310 310 308 307 305 305 304 303 303 303 302 302 302 301
312 315 315 314 315 319 316 316 313 312 311 313 314 313 308 310 309 308 308 309 310 311 311 311 311 311 311 310 310 308 307 306 306 305 304 304 303 303 303 302 302 301 301 300
311 311 313 314 312 310 314 315 314 316 315 308 309 311 307 305 308 310 309 310 310 311 311 311 310 309 308 307 307 306 306 306 305 304 303 303 303 303 302 301 300 300 299 299
310 314 312 313 311 309 313 314 311 309 309 309 310 311 305 306 308 311 310 310 310 310 309 308 307 307 307 306 306 306 306 304 303 302 301 301 302 301 300 299 299 299 298 297
311 312 311 313 312 309 310 311 311 310 310 309 309 311 309 307 308 307 309 310 310 310 308 308 307 307 306 306 305 305 304 303 301 300 299 300 300 300 300 299 299 297 296 297
309 312 309 309 310 309 310 310 310 310 309 312 311 309 309 306 307 308 311 310 309 308 307 307 307 306 305 304 304 303 302 300 299 299 300 300 299 299 299 298 296 296 296 296
305 310 309 309 309 311 311 309 309 309 309 309 309 309 308 306 308 308 309 309 309 308 307 306 305 304 304 303 303 301 300 299 299 299 299 299 298 297 297 296 296 297 296 295
306 308 309 310 312 312 314 312 310 310 309 308 309 308 306 306 306 307 309 309 308 307 307 305 304 303 303 302 300 299 299 299 299 299 299 298 297 297 297 297 297 296 295 295
306 310 310 310 312 315 312 309 310 310 310 309 309 307 307 306 305 306 307 309 308 307 306 303 303 302 301 299 299 299 299 299 299 299 299 299 298 298 298 297 297 296 295 295
306 308 310 310 311 310 312 309 307 312 310 308 308 307 305 306 306 305 307 307 307 306 304 303 302 300 299 299 298 298 299 299 299 299 299 299 298 298 297 297 296 296 295 294
306 307 309 308 311 311 308 308 308 303 304 307 308 306 305 306 305 302 305 305 304 304 303 301 299 299 298 298 299 299 299 299 298 298 298 298 298 297 297 296 296 295 294 293
307 306 309 310 308 309 308 307 307 304 304 306 309 308 306 304 305 305 304 304 303 302 300 299 299 299 299 299 299 299 299 299 299 299 298 298 297 297 296 296 295 294 293 292
308 307 306 307 310 310 308 307 305 304 307 308 308 308 307 307 306 304 303 303 302 301 299 299 299 299 300 300 300 299 299 299 299 298 297 297 297 296 296 295 294 293 292 290
308 308 308 307 308 308 307 306 306 309 309 309 309 308 308 307 305 303 302 302 300 299 299 299 300 300 300 299 299 299 299 298 298 298 297 297 296 296 295 294 293 292 290 290
307 306 308 307 307 305 309 309 307 309 309 309 308 308 308 306 304 302 302 301 300 299 299 300 300 299 299 299 299 298 298 298 298 298 297 296 296 295 294 293 291 290 289 291
306 305 305 303 303 305 308 309 310 309 309 309 308 307 307 305 303 303 301 300 299 299 300 299 299 299 299 298 298 298 298 298 297 297 296 296 295 294 293 291 289 289 290 290
305 305 305 306 307 306 306 308 309 309 309 308 307 306 305 305 303 301 300 299 299 300 300 299 299 298 298 299 298 298 298 297 297 297 296 295 294 293 292 289 289 290 290 290

GFSCGP_850_thetae_084.txt.gz
Theta_e
314 316 320 317 320 322 325 326 326 324 324 327 327 328 327 328 330 328 322 328 334 337 338 338 338 339 339 338 338 337 334 332 333 327 321 314 311 308 306 306 306 306 306 306
315 316 315 318 319 321 325 328 328 325 327 325 326 328 327 326 328 330 326 323 323 324 328 332 331 333 335 336 337 336 333 333 331 324 317 312 309 307 306 306 307 307 307 307
316 317 317 321 323 327 328 328 327 328 325 322 327 327 326 325 326 328 326 327 328 327 321 324 328 329 331 335 336 334 332 332 325 317 312 310 308 307 307 307 307 309 309 309
317 318 321 324 326 327 327 326 326 328 328 331 324 331 324 321 320 316 317 318 319 319 319 323 327 330 334 337 335 333 331 324 316 312 311 310 309 309 309 309 309 309 309 309
317 322 322 325 325 326 326 327 326 326 324 325 322 326 323 313 316 314 312 315 316 317 318 320 328 334 336 337 334 330 324 316 312 311 310 309 309 309 309 309 309 309 309 309
319 320 321 322 321 323 321 322 322 319 320 327 326 326 326 316 315 313 312 314 315 316 317 317 321 330 334 332 328 322 317 312 311 310 310 309 308 308 308 309 309 309 309 308
320 321 320 322 321 320 322 323 324 327 326 329 316 322 327 315 311 312 311 313 314 315 316 317 318 322 329 326 320 315 312 311 310 309 309 308 308 308 308 309 309 308 308 308
323 322 319 317 321 322 323 323 324 329 325 325 316 323 321 311 309 310 312 312 313 315 315 316 318 320 325 320 315 312 311 310 310 310 309 308 308 308 308 308 308 308 308 307
320 321 317 318 318 320 321 324 318 313 311 316 315 312 311 310 310 309 308 310 312 314 314 315 315 319 319 315 312 311 311 310 309 309 309 309 309 308 308 306 304 303 303 302
318 319 317 321 316 316 319 318 327 321 319 316 311 313 314 312 311 308 307 308 310 311 312 312 312 313 312 311 311 310 310 310 310 309 309 307 305 304 303 303 302 302 301 301
313 316 315 319 318 319 315 316 314 320 317 318 314 313 308 310 309 308 307 309 310 311 311 311 311 311 311 311 310 310 309 308 306 305 305 304 303 303 302 302 302 301 300 300
311 312 313 314 310 310 314 315 313 317 314 308 310 313 306 305 306 309 309 310 310 310 310 310 310 310 310 309 308 307 306 306 305 304 303 302 302 302 302 301 300 299 299 299
310 312 312 312 311 310 317 315 311 310 309 308 311 312 306 307 307 310 310 310 310 310 309 309 309 308 308 307 306 306 306 305 304 303 301 300 300 301 300 300 299 299 299 297
310 311 310 312 312 309 310 311 310 310 311 309 309 311 310 308 308 307 309 310 310 309 308 308 307 307 306 306 306 305 305 304 302 301 299 300 300 300 299 299 298 297 296 296
307 311 309 308 308 308 309 309 310 310 310 312 312 309 309 307 306 308 311 310 309 308 307 307 306 306 305 305 304 304 303 301 300 299 299 299 298 298 297 297 297 296 296 297
305 308 308 309 310 311 311 309 308 308 308 307 309 308 305 306 308 309 310 309 309 308 307 306 306 305 304 303 303 302 300 299 299 299 299 298 298 297 297 297 297 297 297 296
305 307 308 309 311 312 314 312 310 309 307 308 309 308 306 306 306 307 308 309 309 308 307 306 305 304 303 303 301 300 299 299 299 298 299 298 298 298 298 297 297 297 296 296
305 309 308 309 311 314 312 308 309 309 309 307 308 308 306 305 304 305 307 308 308 307 306 305 304 303 302 301 299 299 298 298 298 298 298 298 298 298 298 297 297 297 296 296
305 308 309 309 310 310 310 309 307 310 309 308 308 305 305 305 306 305 306 307 308 307 306 304 302 301 300 298 298 298 298 298 298 298 298 298 298 298 298 297 297 296 296 295
306 306 308 308 311 312 309 307 307 303 303 302 307 305 304 305 304 301 306 307 306 304 303 302 301 299 298 298 298 299 299 298 299 299 299 298 297 297 297 296 296 296 294 294
305 305 309 310 309 310 308 307 306 305 304 306 308 307 305 304 304 306 304 303 303 302 301 299 299 298 298 299 299 299 299 299 299 299 298 297 297 297 296 296 296 294 294 293
306 304 305 307 310 309 308 307 306 304 307 307 308 308 307 307 306 304 303 303 302 301 299 299 299 299 299 299 299 299 299 299 298 298 298 297 297 296 296 296 295 294 293 290
308 307 307 306 307 307 307 306 306 308 309 308 308 308 308 307 305 304 302 301 300 299 299 299 299 299 298 298 299 299 298 298 298 298 298 296 296 296 296 295 294 292 289 289
307 305 307 307 307 305 309 309 307 307 308 309 308 308 308 308 305 303 302 301 300 299 299 299 299 298 298 298 298 298 297 298 298 297 297 296 296 295 294 294 292 289 288 290
306 305 305 303 304 306 308 308 309 309 308 308 308 307 307 306 304 303 301 300 299 299 299 299 299 298 298 298 298 298 298 297 297 297 296 296 295 294 294 292 290 289 289 290
304 306 305 308 307 305 307 308 308 308 308 308 308 306 306 305 304 302 300 299 299 299 299 299 299 298 298 298 298 298 297 297 296 296 295 295 294 294 292 289 288 289 290 290

GFSCGP_850_thetae_087.txt.gz
Theta_e
313 316 318 317 316 316 323 326 328 326 325 328 330 330 328 328 328 327 325 330 332 334 333 334 334 335 335 336 337 337 337 336 333 332 330 324 318 312 309 306 307 307 307 307
315 317 315 317 316 318 315 322 327 328 325 327 328 330 329 328 329 328 326 324 326 330 334 336 336 336 336 337 336 337 336 333 331 332 328 320 313 310 307 306 306 306 306 306
316 316 316 316 319 319 317 320 326 328 325 324 327 330 329 327 326 327 328 327 323 325 326 327 335 337 335 337 336 336 335 333 331 330 323 315 310 308 307 306 306 307 307 307
317 316 317 319 319 321 321 323 327 328 330 332 324 333 328 326 326 324 325 325 327 327 328 328 323 327 330 331 335 335 332 331 330 324 318 312 310 309 308 308 307 307 308 308
319 321 322 321 320 322 323 326 327 327 328 328 324 332 330 315 320 321 318 316 321 322 320 320 321 324 328 331 334 335 332 330 323 318 314 310 309 309 308 308 308 308 309 309
320 319 321 321 321 323 321 323 323 321 326 332 328 330 331 323 320 315 313 315 315 316 317 318 321 326 331 333 337 334 330 324 319 314 311 310 309 308 308 308 308 309 309 309
319 321 319 320 322 322 323 326 330 331 331 330 318 327 329 317 312 313 314 313 314 315 315 316 317 322 331 334 335 331 326 320 314 312 310 309 308 308 307 308 308 308 309 308
321 322 319 318 320 323 324 326 328 329 331 330 318 326 326 312 310 310 311 312 313 314 314 315 316 318 327 330 330 326 320 315 312 310 309 308 308 307 307 308 308 308 308 308
319 320 316 318 318 320 323 326 321 315 312 320 320 316 313 311 311 309 309 310 311 313 314 314 316 318 323 323 320 316 313 311 310 309 308 308 308 308 308 307 305 303 303 302
318 319 317 321 316 315 321 321 327 325 322 319 314 314 323 314 313 310 309 309 310 311 312 313 315 317 317 315 313 311 310 310 309 309 309 308 307 305 304 303 303 302 302 301
317 317 317 321 320 317 317 318 318 322 320 322 320 319 311 312 312 312 310 309 310 310 310 310 311 311 311 310 310 310 310 310 309 307 306 305 304 303 302 302 302 301 301 299
311 313 315 319 317 310 314 315 320 325 318 312 312 321 308 307 307 310 310 309 309 309 309 309 309 310 310 310 310 309 308 306 305 305 304 303 302 301 301 301 300 299 299 299
309 314 314 312 313 313 319 315 312 312 312 312 316 320 307 308 307 309 310 308 308 308 308 308 309 309 309 309 308 307 306 305 305 304 303 302 300 300 300 299 299 299 298 298
310 311 313 315 312 310 314 313 312 312 315 313 313 314 312 310 310 308 309 309 308 308 308 308 308 307 307 306 306 305 305 304 303 302 301 300 299 299 298 298 298 297 297 296
308 309 309 309 308 309 308 309 310 311 311 315 313 311 311 309 308 309 310 309 308 307 307 307 307 306 305 305 304 304 303 303 301 300 299 299 298 298 298 297 297 296 296 297
304 309 307 309 311 309 309 309 307 308 309 308 308 310 307 306 306 307 309 309 308 308 307 307 306 305 304 304 303 303 302 301 300 299 298 298 298 298 298 298 297 297 297 297
305 306 309 310 310 312 313 313 311 308 307 309 311 311 307 306 306 307 308 309 309 308 308 306 305 304 303 303 303 302 300 299 298 298 298 298 298 298 298 298 297 297 297 297
305 308 308 312 310 313 311 308 309 310 309 307 307 307 306 305 304 305 307 309 309 308 307 305 304 303 302 302 301 299 298 298 298 298 298 297 297 297 297 297 297 297 296 296
303 308 309 311 311 310 309 308 307 309 309 302 308 306 304 305 305 305 306 307 307 307 306 305 303 302 302 300 298 298 298 298 298 298 298 298 298 297 297 297 297 296 296 296
305 306 310 309 313 313 310 307 307 303 306 303 307 305 305 305 308 305 306 307 307 305 304 303 302 300 299 298 298 298 298 298 298 298 298 298 297 297 297 296 296 296 295 294
305 305 310 310 313 312 308 307 305 308 307 305 307 306 305 306 304 305 305 305 304 303 302 301 299 298 298 298 298 298 298 298 298 298 298 297 297 297 296 296 296 295 294 293
308 308 308 307 311 310 307 307 306 306 307 307 308 308 307 306 304 304 303 303 302 301 299 299 298 298 299 298 298 298 298 298 297 297 298 298 297 296 296 296 295 294 293 290
310 307 309 309 310 307 308 307 306 307 308 308 308 308 307 306 304 303 302 301 300 299 299 299 299 298 298 298 298 298 297 297 297 297 297 296 296 296 295 295 294 293 290 288
307 304 307 308 307 306 308 309 309 308 307 308 308 308 307 307 304 302 302 300 300 299 299 299 298 298 298 298 297 298 298 297 297 297 297 295 295 295 295 294 293 290 288 289
306 305 305 305 306 308 308 308 307 308 307 307 308 307 307 306 303 303 301 300 299 299 299 299 298 298 297 297 298 298 297 297 297 295 295 295 294 294 294 292 289 288 288 289
304 306 307 309 307 307 308 309 308 308 307 307 307 306 306 305 304 302 300 300 299 299 299 299 298 298 297 298 298 298 297 296 296 295 294 294 293 292 289 288 288 289 289 289